GFSFLT1_925_thetae_000.txt.gz
Theta_e
314 314 314 314 313 313 312 311 311 310 309 311 311 310 310 310 309 311 312 312 309 307 308 308 307 306 305 305 305 304 304 304
311 312 313 312 312 312 312 311 311 310 309 309 309 309 308 308 308 309 313 310 310 307 306 306 307 306 305 305 305 304 304 304
310 311 312 313 312 312 312 311 311 310 309 309 309 309 308 308 307 307 308 310 310 308 307 305 306 306 305 304 304 305 304 303
310 312 313 313 313 313 313 313 312 312 311 310 309 308 307 307 307 307 306 307 309 308 307 306 305 304 304 304 303 303 303 302
311 311 312 313 313 313 313 313 313 312 311 310 309 309 307 308 308 307 307 307 308 307 306 305 305 304 303 303 301 301 300 299
311 312 312 312 313 313 313 313 313 312 312 311 311 310 309 309 308 307 307 306 306 306 306 305 305 303 302 301 300 297 295 295
311 313 312 313 314 314 314 313 313 312 312 312 312 311 311 309 309 307 306 305 305 306 305 305 302 300 300 300 298 296 296 296
309 311 311 313 313 313 311 311 311 310 310 310 310 310 310 310 310 307 306 304 303 301 300 299 297 295 295 295 296 298 298 297
311 310 311 312 311 311 310 311 310 309 309 309 309 308 308 308 308 307 304 300 298 296 295 295 296 296 296 296 297 297 297 294
309 312 311 310 310 310 310 310 309 308 307 305 306 305 305 305 304 302 299 296 295 296 296 297 297 297 298 297 294 293 293 292
309 309 310 310 310 310 309 308 308 306 302 303 303 303 303 302 299 297 295 295 296 299 299 298 296 294 293 293 293 292 292 292
308 309 310 310 310 309 308 308 306 302 303 302 301 301 299 297 295 295 296 296 298 297 295 293 293 293 292 292 292 293 292 292
308 309 309 309 308 307 307 307 304 303 304 301 300 299 296 295 295 295 295 294 294 294 293 293 292 292 292 292 291 290 290 289
308 308 308 309 308 307 307 306 302 304 304 301 298 296 294 294 294 294 294 294 293 293 292 292 292 292 291 290 290 289 289 289
308 307 307 308 307 307 307 302 303 302 302 298 295 294 293 295 294 294 294 293 293 292 292 292 292 290 289 289 289 289 288 288
308 307 306 307 307 306 304 303 302 301 300 295 294 295 295 295 294 294 295 294 293 293 292 290 289 288 288 288 288 287 286 285
308 307 307 306 306 304 302 301 301 301 300 298 298 296 296 295 296 293 294 294 292 290 289 288 287 287 287 287 285 284 283 283
306 307 306 305 304 302 301 300 300 300 299 297 298 297 295 294 294 294 294 291 289 288 287 287 287 287 286 285 284 282 283 283
306 306 304 303 302 300 300 300 300 300 299 297 297 297 295 294 292 290 289 288 287 287 286 286 286 285 285 283 282 282 283 283

GFSFLT1_925_thetae_003.txt.gz
Theta_e
311 312 312 313 314 314 313 312 311 310 310 310 310 310 310 310 309 310 310 312 312 310 307 308 310 308 305 305 305 305 304 304
310 311 311 313 313 312 312 311 311 310 310 309 309 309 309 308 308 308 308 307 309 312 308 306 307 308 306 305 305 305 304 304
308 310 311 312 312 311 311 312 311 311 311 311 310 310 309 309 308 308 307 307 307 311 309 307 306 306 307 305 305 305 304 304
309 309 310 311 311 311 312 312 312 311 311 310 310 309 308 309 309 308 308 307 307 309 309 308 307 305 307 306 305 304 303 302
309 310 311 311 312 312 312 311 311 311 310 310 309 309 307 309 309 310 310 309 307 306 306 309 307 305 306 305 303 303 302 300
311 311 310 310 311 311 312 312 312 312 311 311 310 310 310 310 310 309 309 308 306 306 306 308 306 304 304 303 302 300 297 295
310 310 311 312 312 312 311 311 310 310 309 309 308 308 308 308 308 308 308 308 307 305 304 306 305 303 301 297 295 295 296 295
308 308 310 311 310 310 310 310 309 308 308 308 307 306 306 307 306 306 307 306 303 302 303 302 299 297 295 296 298 298 298 299
308 309 309 309 309 310 309 308 307 307 307 304 304 304 304 304 304 304 304 302 298 297 297 297 297 296 297 297 297 298 297 298
309 309 309 309 309 309 309 308 307 307 303 304 305 304 303 303 303 301 301 298 296 297 298 298 298 298 298 297 294 294 294 293
307 308 309 309 309 308 308 307 307 306 305 305 305 303 302 301 301 300 298 296 297 298 299 299 299 297 294 293 293 292 293 292
307 308 309 309 308 308 307 307 307 304 304 304 304 302 300 297 297 297 295 297 296 294 295 294 293 294 293 293 292 292 291 290
307 308 309 308 308 308 306 306 306 303 303 302 301 300 298 295 295 295 295 294 294 292 292 292 292 292 292 292 291 290 289 289
307 307 307 307 307 307 306 306 302 302 301 300 300 298 295 294 294 294 294 293 292 292 292 292 292 292 291 289 288 288 288 288
307 307 306 307 307 306 305 304 302 300 300 300 298 293 292 293 293 293 294 295 293 292 292 292 291 289 288 288 288 288 288 287
307 307 305 306 306 305 303 302 300 299 300 298 294 293 293 293 295 294 294 293 293 292 292 291 289 288 288 287 287 286 285 284
307 305 305 305 305 303 302 300 299 299 299 297 297 295 294 294 294 293 293 293 293 292 289 288 287 287 287 287 285 284 283 283
304 304 304 304 302 300 299 298 299 298 298 297 296 296 296 295 294 294 294 291 289 288 287 287 287 287 286 285 284 283 282 282
303 304 302 301 300 299 298 298 297 296 293 292 292 292 292 292 291 289 288 287 286 286 286 286 286 285 284 283 282 282 282 282

GFSFLT1_925_thetae_006.txt.gz
Theta_e
309 311 311 313 314 315 316 314 313 312 311 310 310 310 310 310 309 309 309 309 310 311 311 310 308 307 308 308 305 304 305 304
308 310 311 312 313 315 313 312 311 310 310 310 310 310 310 309 310 309 308 308 308 309 311 311 309 308 307 307 306 305 305 304
308 310 312 313 313 312 312 311 310 310 309 309 308 308 308 309 310 310 309 308 308 308 307 308 310 308 307 308 306 305 305 304
308 308 310 310 311 310 310 309 309 308 308 308 309 309 309 310 310 310 310 310 309 307 307 307 308 310 307 306 307 305 305 304
308 309 309 309 309 309 309 310 310 310 309 309 308 308 307 308 307 307 307 308 307 307 306 305 307 310 307 306 306 305 304 302
309 308 308 309 309 310 310 310 310 309 309 308 307 305 304 304 305 305 304 304 304 305 306 305 304 305 306 305 305 303 302 300
308 309 310 309 310 310 310 310 309 308 308 306 304 303 303 303 303 303 303 303 303 304 304 304 302 303 302 301 298 296 296 297
305 307 308 309 309 309 309 308 308 307 306 304 305 305 304 302 302 303 302 302 302 302 301 300 298 297 297 297 297 297 297 297
306 307 307 308 308 308 308 307 307 306 306 305 305 305 304 301 301 301 301 301 299 297 298 297 297 297 297 297 297 297 297 296
306 308 308 308 308 308 308 307 307 306 306 304 305 304 302 301 300 300 299 299 297 297 297 298 298 298 298 298 297 294 292 292
307 308 309 309 308 308 308 307 306 306 305 304 304 302 300 300 299 298 297 297 297 298 297 295 295 295 295 294 292 292 293 293
305 307 308 308 308 308 307 306 305 306 303 303 301 300 299 297 296 296 295 297 295 294 293 294 293 292 292 293 293 293 291 291
305 307 308 308 308 308 307 305 305 302 302 300 299 299 297 294 293 294 295 293 292 293 293 292 292 291 291 291 291 290 289 288
306 307 307 308 307 307 307 305 303 301 299 299 298 296 292 292 292 293 293 294 293 293 292 293 292 291 291 290 288 288 288 287
306 305 306 307 305 305 305 303 301 299 299 298 296 293 291 292 294 294 294 294 294 293 293 292 291 290 288 288 287 287 287 287
305 305 306 304 304 304 302 300 298 298 298 297 296 295 294 294 294 294 294 294 293 293 293 292 289 287 287 287 287 287 286 285
305 303 303 303 303 301 299 298 298 298 297 297 296 296 295 295 292 292 292 292 292 292 291 287 287 287 287 287 285 285 284 283
300 300 301 302 300 299 298 298 297 297 294 291 291 291 291 291 291 290 289 288 287 286 286 286 286 286 285 284 284 283 282 282
301 301 301 300 298 297 295 295 294 291 291 292 292 291 288 288 287 287 286 286 285 285 285 285 284 283 282 282 282 282 281 281

GFSFLT1_925_thetae_012.txt.gz
Theta_e
321 319 316 317 322 325 328 326 323 322 319 318 315 315 314 314 313 313 313 313 313 314 314 315 316 316 315 314 314 313 312 312
316 316 316 316 320 322 322 320 315 315 314 313 313 313 312 313 313 312 312 312 311 311 311 312 312 313 314 314 314 314 314 312
316 316 316 317 316 314 313 312 311 311 311 311 312 312 313 312 312 311 310 308 308 308 309 309 309 310 311 312 313 314 314 313
316 315 315 314 314 313 313 313 312 312 312 312 311 312 312 311 309 308 307 306 306 306 306 306 307 308 308 309 310 311 312 313
315 315 315 315 314 314 313 312 312 311 310 310 310 310 310 309 308 307 306 305 305 304 304 305 306 306 306 307 307 309 310 311
316 315 314 314 313 313 313 312 311 311 310 309 309 309 308 307 307 306 304 303 303 303 303 304 304 305 306 307 307 307 308 309
315 314 314 314 314 314 313 312 311 310 310 308 307 308 307 306 305 304 303 302 302 302 302 303 304 304 304 304 303 303 303 303
316 315 315 314 314 313 312 311 311 309 309 308 306 306 305 305 304 303 302 301 301 301 302 303 303 302 302 301 299 298 297 296
315 314 314 314 313 313 312 311 310 308 308 307 305 306 305 303 302 301 300 300 300 301 302 301 301 301 300 301 300 297 294 293
315 313 313 313 313 312 311 311 311 309 308 307 306 305 303 301 299 298 298 299 299 301 301 300 300 299 298 297 296 295 295 293
315 314 313 312 312 312 311 310 309 309 307 305 304 302 300 298 297 297 298 299 300 300 299 297 297 296 295 294 294 294 295 295
314 313 312 312 311 310 309 309 308 306 305 303 302 300 298 297 297 297 297 297 296 296 296 296 296 294 293 293 294 294 293 292
313 313 311 311 309 308 306 305 304 303 302 301 300 298 297 297 297 297 297 296 296 296 296 295 294 293 295 293 292 292 291 291
313 312 311 309 307 305 304 303 303 302 301 300 299 298 298 297 297 296 296 296 296 296 295 294 294 294 293 292 292 291 291 290
313 311 309 305 304 303 303 303 302 300 300 299 299 298 297 297 295 295 294 294 294 294 293 293 291 290 289 289 289 289 289 289
309 308 304 303 302 303 303 300 299 299 299 298 297 296 295 294 293 292 292 292 290 289 289 289 288 288 288 287 287 287 288 287
304 303 301 301 302 303 299 298 298 299 298 297 295 294 294 292 291 290 289 288 288 288 288 288 288 287 285 283 283 285 285 286
303 301 301 301 303 300 298 298 297 297 296 295 294 294 293 291 290 288 288 288 288 287 287 287 287 286 284 282 282 282 283 284
301 301 300 302 302 299 298 297 297 296 295 295 294 292 291 290 288 288 288 287 287 287 287 286 285 285 283 281 281 282 283 284

GFSFLT1_925_thetae_015.txt.gz
Theta_e
327 324 322 321 322 325 328 331 328 325 322 320 318 317 317 316 316 316 316 316 315 315 315 315 315 315 315 315 316 316 316 316
322 320 320 321 325 326 327 325 320 318 317 316 316 316 315 315 316 315 315 314 312 312 312 311 312 311 312 312 313 314 315 315
320 320 320 320 320 319 318 317 316 315 315 315 315 315 315 315 315 313 312 311 310 309 309 309 308 309 309 310 311 312 313 314
319 319 319 319 318 317 316 316 315 315 314 314 314 314 314 314 313 312 311 310 309 308 307 307 307 307 308 308 309 309 311 311
319 319 319 318 318 316 316 315 315 314 314 313 314 313 313 313 312 311 310 308 307 306 305 305 306 306 307 307 307 309 309 310
319 318 318 317 317 317 316 315 315 314 314 312 312 312 311 311 310 309 307 306 305 304 304 304 305 305 306 306 307 307 307 307
318 317 317 317 317 317 316 315 314 314 313 312 311 310 309 308 308 306 305 304 303 303 303 303 304 305 305 305 305 303 302 301
319 318 317 317 316 316 315 315 314 313 312 311 310 309 308 307 306 305 303 302 301 301 302 303 303 303 302 302 301 300 298 296
318 317 317 316 316 315 315 314 314 313 312 311 310 309 307 305 304 302 301 300 300 301 302 303 302 301 300 297 297 297 295 295
317 316 316 315 315 314 314 313 312 311 311 310 308 306 305 303 301 300 300 300 300 301 302 301 299 298 298 298 297 297 296 296
317 316 315 314 314 313 312 311 311 310 308 307 306 304 303 300 299 299 299 299 299 298 299 298 297 297 296 296 296 296 296 296
316 315 314 313 313 312 310 309 308 307 305 304 303 302 301 299 299 299 298 298 297 298 297 297 297 296 295 295 295 295 295 294
315 314 313 313 311 310 308 307 305 304 303 302 301 300 300 299 299 297 297 296 297 297 297 296 295 295 295 294 294 294 293 293
314 313 312 311 309 307 305 304 304 303 301 300 300 299 299 298 297 296 295 295 295 295 295 295 294 293 292 291 291 291 291 291
313 311 310 309 306 304 304 303 303 301 300 299 299 299 297 297 296 295 294 293 292 291 290 290 290 290 290 290 290 289 289 289
311 309 307 304 303 303 303 302 300 299 299 299 298 297 296 295 294 293 292 291 290 290 289 289 289 289 289 288 287 286 286 287
308 304 303 302 302 302 302 301 300 299 298 298 297 296 295 295 293 292 290 290 289 289 289 289 289 288 286 285 284 284 284 285
307 304 303 302 302 302 302 300 299 298 297 297 296 296 295 293 292 290 290 289 289 289 289 288 288 287 285 284 283 283 283 284
305 303 302 301 300 301 301 300 299 298 298 297 296 295 294 292 291 290 289 289 289 288 288 288 287 287 285 283 282 282 283 283

GFSFLT1_925_thetae_018.txt.gz
Theta_e
327 324 322 322 324 325 327 331 329 326 323 321 320 319 318 317 317 317 316 315 315 314 312 313 313 313 313 313 313 314 314 316
322 321 322 325 326 326 327 323 320 319 318 316 316 316 316 316 316 316 315 313 312 311 310 310 309 309 310 309 310 311 312 313
322 321 321 320 319 319 318 318 317 316 316 316 316 315 316 315 315 314 313 312 311 310 309 308 308 308 308 308 309 311 311 311
321 321 321 319 318 318 317 316 316 315 314 315 315 315 314 314 314 313 312 311 309 308 306 305 306 306 307 307 306 308 310 310
320 321 320 319 318 317 316 316 315 315 315 314 313 314 313 312 312 311 309 308 307 305 304 304 304 305 305 306 307 307 308 307
320 319 319 318 318 318 317 316 316 315 314 314 313 312 311 310 309 309 307 306 304 303 302 302 303 303 304 306 306 305 303 302
319 318 318 318 318 317 317 316 315 315 313 312 312 311 310 309 308 306 304 302 302 302 302 302 302 304 303 302 302 302 301 300
320 319 318 317 317 316 316 316 315 314 313 313 312 310 308 307 305 303 301 301 301 301 302 303 302 302 300 300 299 299 298 297
319 317 316 316 316 315 315 315 314 312 312 311 310 308 306 305 302 301 300 300 300 300 299 300 300 298 298 298 298 297 297 296
318 317 316 316 315 314 314 313 312 311 309 308 307 305 304 303 301 300 299 300 299 298 298 299 298 298 297 296 295 295 296 296
318 316 316 315 314 314 312 310 309 308 307 305 304 303 302 301 300 300 299 297 297 297 298 298 298 297 296 296 296 295 295 295
317 315 314 313 312 311 310 309 307 305 305 304 303 301 300 300 300 299 297 296 296 296 297 297 296 296 295 293 293 294 293 293
315 314 314 312 311 310 309 306 305 305 303 302 300 300 300 300 298 298 296 296 296 295 294 294 294 294 294 294 292 292 293 292
314 313 312 310 310 308 306 304 304 303 301 300 300 300 299 298 297 297 296 295 294 293 291 291 290 290 290 290 290 290 288 288
313 311 310 308 305 305 303 303 303 302 301 299 299 299 298 297 296 296 295 293 292 291 290 290 290 290 290 289 289 288 287 286
311 310 307 305 304 303 303 303 303 301 300 299 299 298 297 296 296 295 294 292 290 290 290 290 289 289 288 287 286 285 285 285
308 307 306 304 304 303 302 302 302 301 300 300 299 298 297 296 295 294 293 291 290 290 290 289 289 288 287 285 285 284 284 284
307 306 305 303 302 301 301 301 301 301 301 300 299 298 297 296 295 293 292 290 290 290 289 289 288 288 286 285 284 283 282 282
306 305 302 301 300 300 299 299 298 298 299 299 298 297 296 295 294 293 291 290 290 289 289 288 287 287 286 285 284 283 282 281

GFSFLT1_925_thetae_024.txt.gz
Theta_e
320 323 324 329 330 332 331 330 328 326 321 320 320 316 315 316 314 313 312 310 309 308 307 306 305 305 305 305 305 305 305 303
317 317 317 321 322 318 317 316 318 317 315 315 314 314 312 312 311 310 309 308 306 305 304 303 302 302 302 302 302 302 302 304
316 316 316 316 315 315 315 314 315 315 314 313 313 313 312 310 309 308 307 306 306 304 302 300 300 300 299 300 301 304 306 306
315 315 315 315 315 315 315 315 315 314 314 314 313 313 311 310 308 307 305 305 304 301 299 300 300 301 303 304 305 304 304 303
315 315 316 316 316 316 315 315 315 314 314 313 312 311 310 307 306 305 305 304 302 299 299 300 300 300 300 301 301 300 300 299
315 316 317 317 316 316 315 315 314 314 313 312 311 310 308 306 306 305 304 301 299 298 299 298 298 299 299 299 298 298 297 297
314 316 317 317 316 316 315 313 312 313 312 311 311 309 306 305 304 303 300 299 299 299 298 296 297 298 298 297 297 297 295 295
313 315 316 316 316 315 314 313 311 310 310 309 308 306 305 304 303 301 300 299 299 298 296 296 297 296 296 295 296 295 294 294
312 313 314 314 313 313 313 311 309 308 307 306 304 303 302 301 301 300 299 299 298 296 294 295 296 296 295 295 295 294 293 294
310 311 311 312 312 311 310 309 308 306 305 304 303 302 301 300 300 300 300 299 296 295 294 294 295 295 294 294 293 292 292 291
309 310 310 310 310 309 308 308 305 304 304 303 303 302 300 300 300 300 300 298 296 295 295 294 293 291 290 290 291 291 291 290
310 309 308 307 307 306 305 305 304 304 303 303 302 301 300 299 299 299 299 297 295 295 294 292 290 290 289 289 289 289 289 288
307 307 307 306 305 303 304 302 302 302 303 303 302 300 299 299 299 299 298 296 296 294 293 291 290 289 289 289 289 288 287 286
305 305 306 305 304 303 302 302 301 301 301 301 300 300 299 299 299 298 297 296 294 293 292 290 289 289 289 289 288 287 286 286
305 304 305 304 302 301 300 299 299 298 298 296 297 298 299 299 298 297 296 295 295 293 290 289 289 289 289 288 287 286 286 285
305 304 303 303 302 301 298 297 296 296 295 296 296 296 295 296 297 297 296 295 293 292 290 289 289 289 288 287 286 285 284 284
304 303 303 304 302 297 296 296 295 295 294 296 296 295 295 295 295 295 295 294 292 290 289 289 289 287 286 286 285 284 284 284
304 304 304 301 297 296 295 295 295 294 296 295 294 293 293 293 293 294 294 292 290 289 289 288 287 286 285 284 284 285 284 283
302 300 297 297 296 295 295 295 294 294 294 293 293 293 292 293 292 291 291 291 289 288 288 287 285 284 284 284 283 282 281 281

GFSFLT1_925_thetae_027.txt.gz
Theta_e
317 325 328 332 331 331 329 328 326 319 321 316 315 315 314 313 312 310 309 308 307 307 306 304 303 302 301 300 299 299 300 304
316 316 326 330 329 326 327 327 323 316 315 314 313 312 311 310 309 308 308 307 307 305 304 302 301 299 301 302 304 304 304 305
314 315 319 320 318 316 316 316 315 315 314 313 313 311 310 309 308 308 307 306 304 303 301 300 297 296 298 300 302 302 302 302
314 314 315 316 315 314 314 314 314 314 314 313 312 311 310 307 306 305 304 304 303 301 298 297 297 296 296 298 299 298 299 299
315 314 313 314 314 315 315 314 314 314 314 314 313 312 310 306 305 304 304 302 301 298 298 298 297 296 298 298 297 298 297 297
313 314 314 314 314 314 314 314 313 313 312 312 312 311 309 306 305 305 303 301 299 298 298 298 295 296 297 296 296 296 295 294
314 314 315 314 313 313 313 313 313 312 312 311 310 309 307 306 304 304 303 301 299 299 298 297 295 296 295 296 295 295 294 293
312 314 314 314 313 312 312 312 311 311 310 309 308 307 305 304 303 302 301 300 299 299 298 295 294 295 296 295 294 294 293 292
311 312 311 312 313 312 311 310 309 309 308 306 304 304 303 302 301 301 300 299 299 299 296 294 294 294 294 294 294 293 293 292
308 309 310 310 310 309 308 308 307 306 304 303 303 303 302 301 300 300 299 299 299 297 295 294 294 294 293 293 293 293 292 292
307 308 309 309 308 307 307 308 306 305 304 303 303 302 301 300 300 299 299 299 299 297 295 295 294 292 290 290 290 289 289 289
307 307 306 306 304 304 304 304 304 303 302 302 302 301 300 299 299 299 299 299 297 295 295 293 292 291 289 289 289 289 289 288
306 306 305 304 303 303 303 302 301 301 302 301 300 299 298 298 298 298 298 297 297 295 294 293 292 290 289 289 289 288 288 286
304 304 304 303 302 302 301 299 299 299 299 296 296 296 296 295 295 294 296 296 296 296 294 294 292 289 289 289 288 287 286 285
303 303 303 303 301 300 299 297 296 296 295 295 295 295 295 295 295 295 295 295 295 295 294 291 289 289 289 287 286 286 285 284
304 303 302 302 302 298 296 296 295 295 294 295 295 294 293 292 292 291 293 294 294 293 291 289 289 288 287 287 286 285 284 284
304 303 303 302 297 296 296 295 295 294 294 295 294 293 292 291 292 292 293 294 293 291 290 289 287 287 286 285 285 285 284 284
303 302 300 297 296 295 295 295 294 294 295 294 293 293 291 291 292 291 290 291 290 290 288 286 287 285 284 284 283 283 282 281
300 297 296 295 295 294 294 294 294 294 293 292 292 291 290 290 292 290 290 290 289 287 287 286 284 283 283 282 282 280 279 278

GFSFLT1_925_thetae_030.txt.gz
Theta_e
317 324 324 325 328 327 326 326 325 322 318 316 314 314 312 312 311 310 309 309 308 307 306 305 305 302 298 296 297 298 301 301
316 320 325 327 328 328 327 326 319 316 313 313 313 311 311 310 310 309 309 308 306 306 304 301 298 296 295 295 296 298 298 298
315 316 321 322 323 325 326 322 316 314 313 313 313 311 310 309 308 307 306 306 305 304 301 298 297 297 295 294 296 296 297 298
314 316 315 316 315 314 314 313 313 313 314 313 312 311 308 307 306 306 306 306 304 301 298 297 297 296 295 296 296 296 296 296
315 314 312 312 312 313 313 313 313 313 313 313 313 311 310 307 306 305 305 303 301 299 298 298 297 294 293 294 295 294 295 294
312 312 312 313 313 313 314 314 313 313 313 312 312 311 309 306 306 306 304 301 300 299 298 298 297 294 294 295 295 295 295 294
312 312 313 313 313 314 314 313 313 313 312 311 311 310 308 306 305 304 302 301 300 299 298 298 296 294 295 295 294 293 293 293
311 312 312 312 311 312 312 312 312 311 310 309 308 307 305 304 303 302 301 300 299 299 298 298 297 294 295 295 294 294 293 293
312 313 312 312 311 311 311 311 310 309 308 307 305 304 303 303 302 301 300 300 299 299 299 298 295 294 295 295 295 293 292 291
309 310 310 310 309 308 309 309 308 307 306 304 303 303 302 302 301 300 300 299 299 299 298 296 294 294 294 293 293 293 291 291
306 307 308 308 307 306 306 307 306 305 304 303 302 301 300 299 298 298 298 298 298 298 297 296 295 294 293 292 291 290 289 289
305 305 306 305 304 303 304 304 303 302 302 302 301 300 298 296 296 295 293 294 295 296 297 295 295 293 293 290 290 289 288 288
304 305 304 303 302 303 303 302 301 299 300 300 296 296 295 294 294 294 295 294 294 294 295 294 293 294 292 289 289 288 288 287
303 303 303 302 301 302 301 299 298 297 296 295 295 295 294 294 293 292 292 292 293 294 293 293 292 289 289 289 289 287 286 285
302 302 302 301 300 299 298 297 296 295 295 295 295 294 293 292 292 291 291 291 293 294 293 292 291 289 289 288 286 286 285 285
303 302 302 301 301 298 296 296 295 295 294 294 295 293 293 292 291 291 291 292 292 292 292 290 289 288 287 286 285 285 284 283
302 302 302 301 297 296 295 295 294 294 293 294 294 292 292 291 290 291 291 290 290 290 290 288 287 286 285 284 284 283 282 281
302 302 299 297 296 295 294 294 294 293 293 294 292 292 291 290 290 291 289 290 290 289 288 286 285 284 284 283 282 281 280 279
301 297 296 296 295 294 294 293 293 293 293 292 292 291 290 290 290 290 291 289 289 288 286 285 284 283 281 281 281 280 278 277

GFSFLT1_925_thetae_033.txt.gz
Theta_e
318 323 323 324 325 325 325 325 325 322 321 323 319 313 312 311 311 308 307 307 306 306 304 301 298 297 298 298 299 299 300 299
319 321 322 324 324 324 325 325 325 324 322 312 309 310 309 308 307 307 306 306 306 304 300 297 297 296 294 294 297 298 297 297
319 320 323 325 325 326 325 326 324 319 313 311 312 310 308 307 306 305 306 305 302 300 298 297 297 296 293 293 295 296 297 297
320 321 323 323 323 324 322 322 318 314 312 311 310 308 306 305 304 305 306 302 301 299 298 298 297 296 296 294 295 296 295 296
318 317 316 316 319 320 319 315 313 312 311 311 311 310 310 307 306 307 303 302 301 299 298 298 298 297 295 296 296 296 296 295
316 313 312 311 311 312 312 312 311 311 311 311 311 310 309 307 307 305 302 302 301 299 299 298 298 297 295 295 297 296 296 295
314 313 312 312 311 312 312 312 312 312 311 311 310 309 308 306 303 302 302 301 300 299 299 298 298 297 296 297 297 296 295 294
315 314 313 312 312 312 313 313 312 311 310 310 308 306 304 303 302 302 301 301 300 299 299 298 298 297 295 296 296 295 295 294
315 314 314 313 311 311 312 311 311 309 309 307 304 303 303 303 302 301 301 300 299 299 298 298 298 296 294 295 295 295 295 295
315 314 313 312 310 310 310 309 309 308 306 304 303 303 302 301 300 298 297 297 295 294 294 295 297 296 295 295 295 294 293 293
314 312 310 309 308 307 307 307 307 305 304 303 302 301 299 297 295 295 293 293 293 293 293 294 296 295 294 294 293 292 291 291
311 309 308 306 304 303 305 305 303 302 301 301 299 296 295 294 294 293 293 293 292 292 294 295 295 294 293 293 293 291 289 289
308 306 305 303 302 302 303 301 300 299 299 297 296 295 294 294 293 292 292 292 292 292 293 294 293 293 293 291 289 290 289 288
307 305 304 303 301 301 300 300 298 297 296 295 294 294 294 293 292 292 291 292 292 293 293 293 292 290 290 290 289 289 286 286
307 305 303 301 300 300 299 298 296 296 295 294 294 294 293 292 292 291 290 291 292 292 292 291 290 290 289 288 287 286 286 285
306 305 303 302 301 299 297 296 295 294 294 294 294 294 292 292 291 290 290 290 291 291 290 290 288 287 286 287 286 285 284 283
305 303 302 302 299 297 296 295 294 294 293 293 294 292 292 291 290 290 290 290 290 290 289 288 286 286 285 284 284 284 282 281
304 303 302 300 296 295 294 294 294 293 292 294 293 292 291 290 290 290 290 291 289 289 288 286 285 285 283 282 281 282 280 280
304 301 298 296 295 294 294 293 293 293 293 292 292 291 291 290 289 289 289 290 290 289 286 285 284 283 282 281 280 280 280 279

GFSFLT1_925_thetae_036.txt.gz
Theta_e
325 327 326 326 329 329 327 327 323 319 317 317 320 319 313 310 309 308 309 309 309 308 306 304 303 302 301 301 301 301 300 301
326 328 328 329 329 328 327 325 324 325 317 321 314 311 309 310 309 309 309 309 306 304 303 303 302 301 301 300 299 299 299 300
328 329 329 328 327 328 326 325 325 323 321 317 315 314 312 311 309 309 309 306 304 303 302 302 301 300 301 301 300 300 299 299
330 330 331 329 329 328 327 327 326 322 317 316 314 312 311 310 309 309 307 305 304 303 302 301 302 301 300 301 300 300 299 298
331 329 329 329 328 327 326 323 321 318 316 314 313 315 314 312 311 309 306 305 304 302 302 302 302 301 301 300 299 300 299 298
326 323 323 323 324 323 321 319 317 315 314 315 315 314 313 311 310 307 306 305 304 303 302 302 302 301 301 301 300 299 298 297
321 318 317 317 317 317 316 315 315 315 315 314 314 313 311 309 307 305 304 303 303 302 302 302 302 302 301 301 300 298 298 297
319 318 317 316 317 317 317 316 315 315 314 313 312 309 307 306 306 304 304 303 303 302 302 301 300 300 300 299 299 298 297 297
319 318 318 317 317 317 316 316 314 313 311 310 308 307 306 305 305 304 303 302 301 299 298 297 297 297 297 298 298 297 296 295
320 318 318 317 317 316 316 314 312 309 308 307 306 305 305 304 303 301 299 298 297 296 296 295 295 295 296 297 297 297 295 294
320 319 318 317 316 314 313 311 309 306 305 305 304 303 302 300 299 298 297 296 295 295 294 294 295 295 296 296 296 296 295 293
320 318 317 315 312 311 310 308 306 305 304 303 303 300 299 298 297 296 296 295 295 294 294 294 294 295 295 295 294 294 293 292
319 316 314 311 310 308 306 305 303 301 302 301 300 298 298 297 296 295 295 295 294 294 294 294 294 294 294 293 292 292 291 291
317 314 312 310 307 305 303 301 301 301 300 299 298 298 297 296 296 295 295 294 293 294 293 293 293 293 293 292 291 291 290 289
315 313 311 308 305 303 302 302 300 299 298 298 298 297 297 296 295 295 293 293 293 293 293 292 292 292 291 290 289 289 289 288
314 313 310 307 304 304 303 301 300 298 297 297 297 297 296 295 295 294 293 293 293 293 292 292 291 290 289 289 289 288 288 286
313 312 309 307 305 304 301 299 298 297 297 296 296 296 295 295 294 293 293 293 293 292 292 291 290 289 286 285 285 286 286 285
312 311 307 306 304 301 299 297 297 296 295 295 296 295 294 293 292 292 292 292 292 292 291 291 290 289 285 283 283 284 284 283
312 309 306 304 300 299 297 296 296 295 295 295 294 294 293 293 292 292 292 291 292 291 291 290 289 288 284 282 282 283 284 283

GFSFLT1_925_thetae_039.txt.gz
Theta_e
324 326 325 325 330 331 330 328 327 323 317 315 317 317 318 313 311 310 311 312 312 311 309 308 306 305 304 303 303 302 302 301
327 328 327 327 332 331 329 328 325 322 319 319 318 317 312 312 311 312 312 312 309 308 307 306 305 304 303 303 303 302 302 301
329 330 330 330 332 330 330 328 325 327 320 322 321 317 315 315 313 313 312 310 308 306 306 305 304 303 303 302 303 302 302 300
331 331 331 331 330 329 330 328 327 325 324 320 318 317 315 314 313 313 311 308 307 306 305 304 303 303 303 303 302 302 301 300
331 332 332 331 331 331 328 326 325 323 319 318 317 316 315 315 314 313 311 308 307 305 304 304 304 303 303 302 302 301 300 300
333 333 332 331 329 328 326 325 322 319 318 317 317 317 317 315 314 313 310 308 306 305 304 304 304 303 302 302 302 301 301 300
329 329 327 325 326 325 323 321 319 318 317 318 317 316 314 313 312 309 307 305 304 304 304 304 303 302 301 300 300 299 300 300
326 325 323 323 323 322 320 319 318 317 318 317 315 314 311 309 308 306 305 304 303 303 303 301 299 298 298 298 298 299 300 299
324 321 320 320 320 320 319 318 318 318 316 314 312 309 307 307 306 305 303 303 301 300 298 298 297 297 296 297 297 298 298 298
322 320 320 320 320 320 319 318 317 315 313 310 308 306 306 305 304 303 301 300 299 297 297 296 296 296 296 296 296 297 298 297
322 321 320 320 320 320 319 317 315 312 310 308 306 306 305 303 301 301 300 298 297 296 296 295 296 296 296 296 297 297 296 296
323 322 321 320 320 318 317 315 311 310 307 306 305 304 302 301 300 299 298 297 296 295 295 295 295 295 296 296 295 295 294 294
323 322 321 320 318 317 314 311 309 307 304 303 304 302 301 300 299 298 297 296 295 295 295 295 295 294 294 294 294 292 292 292
323 322 321 319 316 314 311 309 306 304 303 303 302 301 300 300 298 297 297 296 295 295 295 295 294 293 293 293 292 292 291 291
323 322 320 317 315 312 309 306 304 304 303 302 301 300 300 298 297 297 296 295 295 295 294 294 293 293 292 292 291 291 290 289
321 320 319 316 313 310 307 306 304 303 302 300 300 299 298 297 297 296 295 295 295 294 294 293 293 292 291 290 289 289 288 288
319 318 317 314 311 308 308 306 303 301 300 300 298 297 297 296 296 295 294 294 294 294 294 293 292 291 289 288 286 287 287 287
319 318 316 313 310 308 306 303 301 300 299 298 297 297 296 295 295 294 294 294 294 293 293 292 292 291 289 287 285 285 286 286
318 316 314 312 309 306 302 302 300 299 298 296 296 296 295 294 294 294 294 294 293 293 293 292 291 290 289 287 285 284 286 286

GFSFLT1_925_thetae_045.txt.gz
Theta_e
326 325 327 326 327 328 331 329 328 327 326 321 320 319 318 317 317 316 314 313 312 310 308 307 306 305 304 303 303 303 302 303
325 327 328 330 330 330 330 328 326 323 321 320 319 318 316 315 315 313 312 312 311 309 307 306 305 304 303 304 303 303 302 302
322 325 330 331 330 329 329 327 322 321 321 319 318 316 316 316 312 312 313 311 309 308 307 306 305 304 304 303 303 303 303 302
324 326 331 330 329 328 328 325 323 321 322 321 318 317 316 312 313 313 313 310 309 307 306 305 304 304 304 303 303 303 302 302
325 326 330 331 330 328 327 326 326 324 325 321 320 315 314 314 314 313 312 310 308 307 306 305 305 304 304 303 302 301 300 299
326 327 331 332 330 329 328 328 327 326 325 323 317 316 316 315 314 314 312 310 309 308 306 305 305 303 301 300 298 298 298 298
327 329 331 332 331 330 329 328 326 327 324 321 318 317 316 315 314 313 312 310 309 306 305 303 301 299 298 297 297 296 296 297
328 330 330 329 330 330 329 329 327 325 320 318 317 316 315 314 313 311 307 304 303 301 301 300 299 298 297 296 296 296 296 297
330 330 329 330 330 330 329 326 322 320 318 318 317 314 312 310 309 306 304 304 302 300 299 298 297 297 296 296 296 297 297 296
326 326 328 328 329 329 327 320 320 319 318 318 315 313 310 308 307 306 304 304 301 299 298 297 296 295 296 296 296 296 295 294
323 322 324 325 325 323 322 320 319 318 318 315 311 309 307 305 304 304 304 302 300 299 297 296 295 296 296 295 294 294 293 293
320 319 322 323 323 322 321 320 318 318 314 311 309 307 305 304 304 302 301 299 298 297 296 295 295 295 295 295 293 293 294 292
319 317 319 320 321 321 320 319 317 313 311 309 307 305 304 303 302 301 300 298 297 297 295 295 295 295 294 294 292 292 293 292
319 317 318 319 320 321 320 317 315 311 310 308 306 305 304 303 301 300 298 297 297 296 295 295 295 295 294 293 293 292 292 290
320 319 319 320 320 320 319 315 312 309 307 306 305 304 303 301 300 298 298 297 296 295 295 295 295 294 293 292 292 292 290 289
319 319 318 320 319 318 315 311 309 306 306 305 304 303 302 299 299 299 297 297 296 295 294 295 295 293 293 292 292 290 289 288
318 319 319 318 317 314 311 307 306 306 305 304 300 299 299 300 299 297 296 296 295 294 294 294 294 293 293 292 291 289 288 287
317 317 318 318 315 312 308 307 306 306 301 299 298 299 299 297 296 296 295 294 294 294 294 293 293 293 293 291 291 289 288 286
314 315 316 315 312 309 307 306 303 300 299 298 297 297 297 296 295 295 294 294 294 294 293 293 293 293 292 292 290 288 287 286

GFSFLT1_925_thetae_048.txt.gz
Theta_e
329 324 326 326 324 326 327 329 328 327 326 324 321 320 319 318 318 318 317 316 314 310 308 307 306 304 303 303 303 302 302 302
325 324 324 323 324 326 326 329 328 327 324 322 319 318 318 317 317 316 314 312 311 309 307 306 305 304 303 303 303 302 302 302
324 324 323 326 326 327 327 329 327 326 325 324 321 320 318 317 314 312 311 311 309 308 307 305 305 304 303 303 303 302 302 302
322 325 327 327 326 327 328 328 328 326 325 321 320 318 316 313 312 312 312 310 309 308 307 307 305 304 304 303 302 301 300 299
323 327 328 327 326 326 327 327 327 324 321 320 319 316 313 313 312 312 312 309 309 307 306 304 304 304 303 302 300 298 297 297
325 328 329 328 327 326 327 327 325 323 321 322 318 317 317 314 313 313 312 310 309 307 305 305 304 303 301 299 297 296 296 296
322 329 329 328 327 327 327 327 325 325 322 323 321 318 315 314 313 313 311 309 308 307 306 304 303 301 299 297 296 295 295 295
323 328 329 328 327 327 328 326 326 326 324 322 322 316 316 315 314 313 310 308 305 303 302 301 299 297 296 295 295 295 296 297
325 328 330 329 328 328 327 327 327 325 326 324 322 317 316 315 314 313 309 304 303 301 302 299 297 296 295 295 295 296 296 295
327 327 328 329 328 328 328 327 326 326 326 322 319 315 314 313 311 306 305 303 302 299 297 297 296 296 295 295 296 295 294 293
326 326 326 327 328 328 328 329 328 324 320 317 314 311 310 308 306 304 303 301 299 300 300 297 296 295 295 295 295 293 292 293
324 323 325 328 328 327 326 323 322 320 317 314 311 309 306 304 303 302 301 301 302 300 297 296 295 295 295 295 294 292 291 293
322 322 322 323 324 320 319 319 319 318 316 311 307 305 304 304 303 301 301 301 300 298 297 296 295 295 295 294 294 292 292 292
319 320 321 321 320 321 320 318 318 317 311 308 306 305 305 306 303 301 301 300 297 296 296 295 295 295 295 294 293 292 293 292
319 318 320 320 320 319 317 316 314 309 307 307 306 306 305 302 301 301 299 297 296 296 296 294 294 295 294 293 293 292 292 291
319 317 315 317 319 319 315 312 309 308 308 306 306 304 302 301 300 298 299 297 296 296 294 294 295 294 294 293 293 292 291 289
317 317 317 317 317 314 311 309 308 308 307 305 304 301 299 299 300 298 297 296 295 294 294 294 294 294 293 293 292 291 290 289
318 317 317 316 315 313 308 307 306 305 303 301 299 299 299 298 296 295 295 295 294 294 294 294 294 293 293 293 292 291 290 288
312 313 313 313 312 308 306 305 303 299 298 297 297 296 295 295 295 296 294 294 294 294 293 294 293 292 292 293 292 291 289 287

GFSFLT1_925_thetae_051.txt.gz
Theta_e
328 327 326 329 326 326 328 329 323 324 325 327 328 327 324 323 322 321 321 318 316 314 309 307 306 305 304 303 302 302 302 302
329 328 328 327 325 325 327 325 323 325 327 326 325 323 321 319 319 320 319 317 313 309 308 306 305 305 304 303 302 302 302 301
329 327 325 326 324 325 326 326 327 327 327 325 322 320 318 317 317 315 314 313 310 308 307 307 306 305 303 303 303 302 302 300
327 323 323 323 324 325 326 327 327 327 326 324 320 318 317 315 314 313 313 311 310 309 307 306 305 304 303 303 302 300 299 298
324 323 322 323 324 324 325 326 327 326 325 323 321 319 317 317 316 313 311 311 309 307 306 305 304 304 303 301 299 297 296 296
323 323 322 324 324 324 324 324 325 325 325 323 320 319 319 318 315 312 312 310 308 307 306 305 304 304 300 298 297 296 295 295
321 323 324 325 325 324 324 324 325 326 324 322 320 320 318 315 313 311 312 310 307 306 304 304 302 300 299 297 296 295 295 295
320 323 326 326 325 324 324 323 323 324 323 321 320 321 317 316 313 312 311 308 306 304 302 301 300 297 296 295 295 295 295 296
322 326 327 327 326 325 325 324 324 323 323 322 322 321 319 316 313 312 312 308 304 301 302 302 296 297 300 297 294 295 295 294
323 326 327 327 326 326 326 325 325 325 324 324 323 322 320 315 314 313 310 305 302 303 299 298 301 302 296 295 295 294 293 292
322 326 328 327 327 327 326 327 327 326 326 325 324 322 318 315 312 310 305 302 303 302 301 301 298 296 295 295 294 294 293 291
324 324 327 327 327 327 327 327 327 326 325 323 322 317 314 311 309 305 303 302 302 302 300 299 296 295 295 295 294 294 293 292
324 324 324 326 326 327 327 328 326 325 323 321 315 312 309 305 304 302 302 305 302 299 299 296 295 295 294 294 294 294 293 292
322 321 322 323 323 323 322 322 321 320 317 311 308 306 304 303 302 303 306 301 300 298 295 296 295 294 294 294 294 294 293 292
318 320 320 323 322 320 319 316 316 314 310 307 305 304 304 303 306 303 301 300 297 296 296 295 294 294 294 294 294 293 293 292
318 316 317 319 319 318 315 314 312 310 306 306 305 305 306 306 300 300 298 297 297 296 295 294 294 294 294 294 294 293 293 292
317 316 315 316 317 314 311 310 308 308 307 306 306 305 302 300 298 299 299 296 295 295 295 294 294 294 294 293 293 293 292 291
316 315 314 315 314 312 309 308 308 307 306 304 303 300 298 297 295 295 295 297 298 296 294 294 294 294 293 293 292 292 291 291
306 309 309 310 309 308 306 306 304 302 299 298 298 296 295 296 297 299 299 298 296 294 293 293 293 293 293 292 292 292 291 290

GFSFLT1_925_thetae_054.txt.gz
Theta_e
326 325 325 324 327 327 328 328 327 322 319 320 322 325 328 327 326 325 324 320 317 316 313 309 306 305 304 303 302 301 301 301
327 326 326 325 328 328 326 328 325 321 322 323 325 326 326 325 323 322 321 319 316 314 311 307 306 305 304 302 302 302 301 300
328 327 327 326 327 327 326 327 327 324 322 323 325 326 324 321 320 319 318 317 315 311 309 307 305 305 303 303 303 302 301 298
329 327 326 326 326 327 326 327 328 325 323 324 324 323 320 317 317 317 317 314 311 309 307 306 305 304 303 303 302 301 299 297
328 327 325 325 325 326 326 325 326 323 323 324 324 323 318 317 317 316 315 312 310 308 306 305 304 304 303 302 299 297 296 295
328 327 325 324 323 325 326 325 325 324 324 325 324 321 319 318 317 315 313 311 309 308 306 305 304 303 301 298 296 295 294 294
324 326 324 323 323 324 324 324 324 324 324 324 323 321 318 318 316 313 311 311 307 306 305 304 303 301 299 297 295 294 294 295
320 320 321 321 323 323 324 323 323 324 324 323 322 320 319 319 315 313 311 311 308 306 305 303 300 299 299 298 297 295 294 295
319 320 321 322 323 323 324 323 323 322 322 323 322 320 320 317 315 313 311 311 309 304 301 300 299 299 301 300 295 294 294 294
317 318 322 323 324 323 323 323 323 322 322 324 322 321 320 318 316 314 312 310 305 301 301 301 301 302 299 297 294 294 294 293
316 319 323 324 325 324 324 324 324 323 323 323 323 322 320 320 317 312 310 307 303 300 303 304 303 299 297 296 294 294 294 293
317 320 325 325 325 325 325 324 324 324 324 324 324 323 322 320 315 311 309 305 301 304 306 303 299 296 297 295 294 294 293 292
319 320 324 325 326 326 325 324 324 324 325 324 323 323 320 314 311 310 306 302 304 307 302 299 298 297 295 294 294 294 293 292
320 320 321 324 325 325 324 324 324 324 323 321 317 314 311 307 306 304 303 304 305 300 299 298 295 296 294 294 294 294 293 293
319 319 319 322 323 323 324 323 323 321 317 313 311 307 305 304 303 303 303 303 301 299 296 296 297 294 295 294 294 294 293 293
318 317 317 319 320 319 318 317 314 313 311 308 305 305 304 303 302 302 301 301 298 297 297 295 295 295 294 294 294 293 293 293
314 316 315 316 316 313 313 313 311 309 308 306 305 304 303 303 303 300 298 296 295 295 296 295 296 294 294 294 293 293 293 292
311 311 311 313 312 311 309 308 307 307 306 305 304 303 300 298 298 296 295 296 298 298 296 296 293 294 293 293 293 292 292 292
301 303 303 304 306 306 306 305 304 302 300 299 298 297 296 296 298 299 299 299 298 296 294 293 293 292 292 292 292 292 292 292

GFSFLT1_925_thetae_057.txt.gz
Theta_e
327 326 326 326 325 325 327 328 327 327 323 320 319 320 320 323 326 327 325 325 323 318 314 311 308 307 304 303 302 301 302 302
326 326 325 326 326 326 327 328 328 328 323 321 321 322 323 326 327 325 324 321 320 316 313 310 307 306 305 303 302 302 302 301
327 326 325 325 326 326 326 326 327 327 323 320 320 321 323 326 326 324 322 319 316 315 313 309 307 305 304 302 302 303 302 299
330 327 326 326 326 325 326 326 326 325 322 319 320 322 323 323 321 320 318 316 315 313 312 309 306 304 304 303 303 302 302 299
331 330 328 327 326 325 325 326 326 326 325 321 321 322 322 320 318 319 317 315 314 312 309 306 304 304 303 303 302 300 297 298
330 331 330 328 326 325 325 325 326 326 326 323 321 321 322 320 319 318 315 313 311 309 306 305 304 304 303 303 300 297 295 296
329 330 330 328 326 325 325 325 325 324 324 322 321 321 320 319 317 315 314 312 310 308 306 305 304 303 302 299 297 297 295 295
327 329 329 328 325 325 325 325 325 324 322 321 322 322 320 319 318 318 314 310 309 308 307 304 303 302 298 299 298 297 295 294
326 327 327 327 325 325 325 325 325 324 322 321 324 324 321 318 319 318 315 312 310 307 305 304 302 299 300 302 299 295 294 294
324 324 325 325 324 325 325 325 324 324 322 322 323 323 320 319 321 319 314 310 308 307 305 302 298 300 304 301 296 294 294 294
319 321 322 323 324 324 324 324 324 324 323 321 321 322 320 320 320 316 311 307 308 306 302 299 300 305 301 296 296 295 294 294
318 319 320 323 324 324 324 324 324 324 323 322 321 320 319 320 320 316 312 310 310 301 299 301 304 301 296 298 295 294 294 294
321 320 322 324 325 325 325 324 325 324 323 322 321 320 320 319 317 315 311 308 304 301 302 304 300 298 297 296 297 294 294 294
323 323 324 325 325 325 325 324 324 323 321 320 320 318 317 312 309 308 306 303 301 302 304 299 298 296 297 296 294 294 294 294
324 324 324 323 324 324 323 322 322 321 319 318 314 310 308 308 308 307 306 302 302 303 299 298 298 297 296 295 295 294 294 294
319 321 323 323 322 321 318 316 317 316 314 311 308 308 307 304 302 302 302 303 301 300 298 297 297 295 294 295 294 294 294 294
316 316 318 319 317 315 312 311 310 310 309 307 305 303 302 302 301 301 300 300 298 296 296 296 295 295 296 296 294 294 294 293
312 311 311 312 311 309 309 308 307 306 305 303 301 301 301 300 299 298 295 294 295 296 298 298 296 297 294 293 293 293 293 293
305 306 305 305 305 304 303 302 302 300 299 298 299 298 297 297 297 298 297 297 298 298 297 296 294 293 292 292 291 291 292 292

GFSFLT1_925_thetae_060.txt.gz
Theta_e
329 328 326 323 322 323 323 323 324 328 328 325 322 323 322 324 326 328 329 327 323 321 318 314 311 311 311 309 309 307 307 307
330 328 328 326 324 325 326 326 327 329 328 324 321 322 323 324 326 328 326 325 322 321 318 313 311 311 311 310 309 308 307 306
330 329 328 328 326 325 326 328 329 329 327 323 321 321 323 323 326 325 325 323 321 319 316 312 310 312 310 309 308 308 308 306
331 330 329 328 328 327 327 328 329 328 328 324 322 322 324 324 325 325 323 321 320 318 314 311 310 311 310 309 309 308 309 306
331 331 330 330 329 328 327 328 329 329 328 326 323 321 321 323 325 325 324 320 318 316 312 310 310 310 310 309 308 308 306 305
330 331 331 330 330 329 329 327 328 329 328 327 325 323 321 323 326 324 322 318 314 311 310 309 308 309 309 308 307 305 301 298
330 328 331 331 331 330 330 329 329 329 329 328 328 327 325 325 323 323 322 319 316 313 309 308 308 309 309 307 305 301 299 299
332 330 330 332 332 332 331 330 329 329 330 329 329 328 327 324 323 322 321 318 314 311 308 307 309 309 307 305 299 300 301 299
332 332 330 331 332 332 331 331 331 329 329 329 328 327 326 323 322 322 321 317 313 311 309 309 309 306 303 300 300 301 299 295
330 331 330 331 332 332 332 331 331 330 329 329 328 325 324 322 321 320 318 316 314 312 310 309 305 302 302 300 302 300 294 294
325 327 329 330 331 331 332 331 331 331 330 328 325 324 323 322 320 320 316 317 315 310 307 304 302 301 300 303 301 295 295 294
324 324 324 326 329 329 330 330 329 329 329 328 324 324 324 322 321 317 318 316 311 307 305 303 302 300 303 300 296 296 296 295
325 325 324 325 327 328 328 328 328 328 328 327 324 323 321 321 318 316 315 310 306 302 302 302 300 302 301 298 297 298 297 297
327 327 327 327 327 328 328 328 328 328 327 324 322 321 319 316 313 310 308 305 303 303 302 301 302 298 299 298 299 297 298 297
326 328 328 328 329 329 327 326 325 321 320 319 317 314 313 312 310 308 307 305 303 301 301 302 300 300 299 298 297 297 297 296
322 327 329 329 329 328 323 318 317 317 314 311 309 308 307 306 305 304 303 302 301 301 301 299 298 297 297 297 297 297 297 297
322 324 326 325 324 322 320 318 316 313 311 307 305 304 303 302 302 302 302 300 299 299 298 298 298 297 297 296 296 297 296 296
320 321 321 320 318 317 316 314 313 311 308 306 305 305 304 303 301 298 297 297 297 298 297 297 297 298 297 297 295 293 295 295
316 316 315 314 313 312 311 310 308 306 305 304 302 301 299 299 299 298 298 297 297 297 298 297 297 297 295 293 292 292 293 293

GFSFLT1_925_thetae_063.txt.gz
Theta_e
327 326 324 323 324 324 323 322 323 323 324 322 322 322 321 320 322 324 327 328 327 325 323 321 318 317 315 314 315 313 311 311
328 327 325 324 324 323 323 322 322 325 325 323 321 321 322 322 324 325 328 328 328 327 325 322 318 317 316 315 315 312 311 311
328 328 326 324 324 324 324 323 323 326 326 325 321 319 320 321 323 326 328 328 327 325 325 322 318 317 317 315 314 313 312 311
330 328 328 326 325 325 326 326 325 326 325 325 322 320 320 322 323 325 327 327 326 325 324 321 318 316 315 314 314 313 312 311
331 331 330 330 328 326 326 327 327 327 327 326 324 321 320 321 323 324 326 325 324 324 323 320 316 314 315 314 313 313 312 312
329 331 331 330 330 329 328 327 327 328 328 327 327 324 322 322 323 324 326 325 324 323 321 317 314 313 313 313 312 312 311 310
328 328 330 330 330 330 330 329 328 328 329 329 329 327 326 322 322 327 327 325 323 321 318 315 313 313 311 311 312 311 307 302
329 328 330 330 330 330 331 331 329 329 329 330 330 329 329 327 326 327 325 325 322 320 316 314 312 311 310 311 310 308 301 301
330 330 328 329 330 331 332 332 331 330 331 331 331 331 331 330 328 325 324 324 323 321 318 313 310 309 310 310 307 302 301 302
328 330 330 328 330 332 333 332 332 331 331 332 332 332 332 331 329 326 324 323 322 320 314 310 309 309 309 306 303 301 301 302
327 329 330 331 331 332 333 334 333 332 332 332 332 331 330 329 327 325 324 322 320 317 313 312 310 308 306 303 300 302 300 296
327 327 328 330 331 333 334 334 334 333 333 332 331 329 327 325 324 322 321 321 318 313 312 309 306 305 303 301 301 300 298 297
326 327 327 327 330 331 333 333 334 333 333 333 330 327 325 324 323 322 320 318 314 311 310 307 305 303 301 301 299 299 298 298
325 327 328 328 329 330 331 331 331 330 330 330 327 325 323 322 321 319 316 313 311 307 306 303 302 300 301 301 300 300 299 299
325 326 328 329 330 330 330 331 330 328 325 321 321 319 318 316 314 311 309 307 305 303 302 302 301 301 300 300 300 299 299 298
322 327 328 330 331 329 325 320 319 318 315 313 311 310 309 307 306 305 303 302 302 302 301 301 300 300 300 299 298 297 298 298
324 326 330 331 330 325 319 316 314 312 310 308 306 305 304 303 303 303 302 301 300 300 300 300 299 299 299 298 297 296 297 298
325 327 328 327 325 322 319 316 313 311 309 308 307 307 306 305 304 302 301 300 300 300 299 299 298 298 298 298 297 296 296 296
324 324 322 322 321 319 317 316 313 312 310 309 308 306 304 303 302 302 300 298 298 298 298 298 299 299 297 295 294 293 294 294

GFSFLT1_925_thetae_066.txt.gz
Theta_e
327 326 324 323 321 316 316 318 321 323 323 324 322 321 321 322 322 323 324 323 324 324 324 322 320 318 317 316 315 314 313 311
329 327 323 321 322 321 321 321 323 323 322 323 323 324 322 321 320 323 326 327 326 326 324 322 321 318 317 315 315 315 313 311
327 326 324 322 324 324 324 324 325 324 324 324 322 323 323 322 322 322 327 326 327 327 326 325 322 319 318 316 315 315 313 312
329 327 326 326 325 325 324 324 323 325 325 323 322 321 322 322 322 324 327 327 326 327 326 326 323 320 319 317 316 315 313 313
328 329 327 326 325 325 325 324 323 324 326 326 325 322 321 323 323 324 326 328 327 326 325 324 324 320 318 317 315 315 314 313
329 328 328 326 327 326 326 326 325 325 326 326 325 323 321 320 323 323 327 328 327 325 324 324 323 318 317 316 316 314 313 313
330 330 329 329 328 328 327 328 327 327 328 327 327 325 324 322 323 324 327 326 324 324 324 323 322 320 317 315 314 314 313 313
328 330 331 331 331 330 330 328 328 327 328 329 326 328 326 325 324 325 328 326 325 324 324 322 320 318 315 314 313 312 311 308
328 327 331 331 331 332 332 331 330 329 329 331 331 328 331 328 327 328 328 326 324 319 323 321 318 316 314 313 311 312 310 304
330 329 328 331 331 332 333 332 331 330 330 329 330 330 330 330 331 329 327 325 324 324 323 320 317 315 312 310 311 308 305 301
326 329 330 329 331 332 332 332 333 332 331 331 331 332 333 332 332 330 327 326 325 324 322 319 315 311 309 309 306 305 302 302
327 328 330 330 330 331 333 334 333 333 332 332 332 334 333 332 330 328 327 325 322 321 318 315 312 310 309 307 306 304 302 301
327 328 327 329 332 332 335 335 335 334 334 333 333 333 331 329 327 325 324 322 321 319 315 312 310 309 307 306 303 302 301 300
326 327 328 328 328 331 334 335 335 335 334 332 332 328 326 325 324 323 322 321 318 315 312 309 307 305 303 302 302 301 300 301
323 326 328 329 329 330 332 331 330 328 326 325 322 321 322 321 318 316 315 313 311 308 307 306 304 303 303 301 300 300 300 299
322 326 329 330 331 327 324 322 321 319 315 314 312 313 314 312 311 309 308 306 305 304 304 303 302 302 301 300 300 299 299 298
323 324 329 333 327 321 318 315 313 314 313 310 310 309 308 306 304 304 303 303 302 302 302 301 301 300 300 299 299 298 298 297
325 327 332 327 322 319 315 312 313 312 309 307 306 305 304 303 302 302 302 301 301 301 300 300 299 299 299 298 297 296 296 297
326 328 327 324 320 318 315 313 311 310 309 308 307 306 305 303 303 303 301 300 300 299 299 299 299 299 299 297 296 293 293 293

GFSFLT1_925_thetae_069.txt.gz
Theta_e
322 320 319 319 319 319 319 320 319 318 318 318 319 319 318 320 322 321 320 323 324 323 323 322 320 319 318 317 315 313 313 311
324 321 320 319 319 318 318 318 317 319 319 316 315 316 321 321 320 323 322 322 322 324 323 324 322 320 318 317 316 315 314 311
325 323 322 320 318 316 317 315 316 320 317 317 322 321 320 322 321 323 323 323 322 323 323 324 322 321 319 317 316 315 315 312
326 322 321 318 315 316 316 318 319 322 322 323 322 323 322 321 321 320 321 325 325 324 325 324 324 322 322 318 316 315 314 313
326 322 320 320 319 318 319 319 322 324 322 321 322 322 323 322 320 322 322 323 325 325 326 325 326 325 323 319 317 316 315 313
325 323 322 321 322 323 322 323 324 324 325 322 322 322 321 322 322 321 322 326 326 326 326 326 325 325 322 320 318 317 315 314
325 324 324 324 324 324 324 323 323 322 322 324 325 322 322 321 322 322 322 325 327 327 326 325 324 324 323 320 317 317 316 314
326 325 324 324 324 324 323 323 323 322 322 324 324 325 323 321 320 322 323 326 327 327 326 325 324 324 323 319 318 316 315 314
326 325 326 324 324 324 324 324 325 324 323 324 325 324 325 322 321 321 323 325 326 326 325 324 324 323 320 319 315 314 313 312
325 326 326 327 325 325 326 325 325 326 326 327 327 325 326 327 324 324 323 325 325 326 325 324 323 320 319 316 314 313 311 311
323 324 328 328 328 328 328 328 327 326 327 327 329 328 327 328 328 325 327 326 326 325 323 321 321 320 317 315 313 311 310 308
321 322 325 329 329 329 329 329 329 329 328 329 328 330 330 329 329 329 327 327 326 324 324 323 320 317 314 313 310 309 308 305
322 322 324 326 329 329 330 330 330 330 330 330 330 329 331 329 329 324 323 326 325 323 321 318 315 314 313 310 308 306 303 302
321 322 323 324 328 329 331 331 331 331 331 331 330 330 330 328 323 325 325 323 321 320 319 317 314 311 309 307 306 304 303 302
321 321 322 326 329 325 327 327 332 327 327 322 322 322 324 322 321 321 321 320 319 317 314 312 309 307 306 304 303 302 301 301
318 321 323 325 322 318 317 318 321 321 317 317 316 317 316 316 315 315 314 314 312 311 308 306 305 304 303 303 302 301 300 299
320 326 328 324 320 317 314 313 316 318 316 313 313 312 311 310 310 309 308 307 306 305 305 304 303 302 301 301 300 300 299 298
324 329 326 321 318 316 314 312 311 311 311 310 310 309 307 306 306 305 304 304 304 303 302 302 301 300 300 300 299 298 297 295
327 324 321 318 316 315 313 313 311 309 307 307 306 305 305 304 303 302 302 302 302 301 301 300 300 299 299 297 296 295 293 293

GFSFLT1_925_thetae_072.txt.gz
Theta_e
325 322 320 320 319 320 321 319 319 319 319 321 321 323 324 324 324 324 322 323 321 322 321 320 320 319 318 317 316 313 312 311
322 320 320 320 319 320 320 319 318 318 317 319 321 321 322 321 323 323 324 323 323 323 323 321 321 319 319 318 315 315 314 312
321 320 318 319 319 319 319 319 319 319 317 316 319 320 321 321 320 321 321 321 321 323 323 322 321 321 319 318 317 316 314 314
323 321 318 318 319 318 318 319 318 318 318 317 318 318 318 321 321 320 321 321 321 322 323 323 323 322 320 318 318 316 315 314
324 322 320 319 319 318 316 317 317 318 320 316 317 317 320 320 321 320 321 322 322 323 322 322 322 323 322 322 320 318 315 314
325 322 321 319 317 316 316 315 316 317 319 318 319 321 322 321 320 320 321 320 321 323 324 323 323 324 324 323 322 319 316 315
324 322 320 316 315 315 315 315 316 319 321 321 321 321 321 322 322 321 320 320 321 321 324 325 325 326 325 325 323 320 318 316
325 321 319 317 316 315 316 318 318 320 322 322 321 321 320 320 321 322 321 320 322 323 324 325 326 325 325 324 323 320 318 316
325 323 321 320 319 319 320 319 320 321 322 323 323 323 320 320 320 320 321 321 321 322 325 326 326 324 324 324 323 319 317 317
324 323 322 322 321 321 322 322 322 322 322 322 322 322 323 323 322 320 320 321 322 323 323 325 325 325 324 323 321 318 317 315
325 324 323 323 323 322 323 323 322 322 322 321 321 321 323 323 323 322 320 320 322 323 324 324 325 323 323 322 319 317 314 313
322 324 325 324 324 323 323 323 323 323 323 323 322 322 322 324 325 323 323 323 324 324 322 323 324 322 321 319 317 314 312 310
319 322 324 325 325 325 324 324 323 323 324 325 325 326 326 325 325 325 324 324 318 321 324 323 322 321 319 317 314 312 309 308
318 319 320 323 326 326 326 326 326 327 328 328 328 328 327 326 327 327 327 323 319 320 322 322 320 317 315 313 312 309 307 305
318 318 321 325 326 327 328 328 328 329 329 326 326 328 327 328 327 325 323 320 318 320 318 317 317 315 312 309 307 306 304 303
319 318 324 321 322 323 327 328 329 330 323 320 321 322 324 322 321 322 322 319 318 317 317 313 310 309 307 306 305 303 302 300
317 322 324 320 318 317 318 319 320 321 317 315 318 319 316 317 318 318 318 316 315 312 309 308 306 305 304 304 303 300 300 299
324 325 324 319 317 316 316 316 316 316 316 314 314 316 315 313 313 312 310 309 307 306 305 305 303 303 302 301 300 299 298 297
325 324 319 316 314 316 314 314 314 313 311 310 310 309 308 307 307 307 305 305 304 303 303 302 301 301 300 299 299 297 295 293

GFSFLT1_925_thetae_075.txt.gz
Theta_e
323 322 321 320 320 321 321 320 319 320 320 322 323 323 323 322 321 319 316 315 315 315 316 316 317 318 317 316 315 313 312 310
323 322 321 320 320 320 321 320 320 319 320 322 322 323 323 320 320 321 321 319 316 316 318 318 318 319 318 317 316 315 312 310
320 319 319 320 319 320 320 319 320 319 319 320 321 322 323 322 323 323 321 322 320 319 321 320 320 320 318 318 317 315 313 312
322 319 318 319 319 320 320 319 319 319 318 318 319 320 322 322 323 323 323 322 323 323 323 322 321 321 320 319 318 316 315 313
322 320 317 317 318 319 319 319 318 318 317 317 318 319 320 321 321 321 321 322 322 322 322 321 322 322 321 320 319 317 316 314
323 320 319 317 318 319 319 319 318 318 317 317 316 318 318 319 319 320 320 320 320 321 321 321 322 322 322 322 320 318 317 315
323 321 320 319 318 318 318 317 318 317 317 317 317 317 317 317 318 318 320 320 320 320 322 322 322 322 322 322 322 321 320 318
324 321 320 319 317 316 317 316 316 316 316 317 319 316 317 316 317 320 320 320 320 320 320 321 322 323 323 323 323 323 321 319
324 322 320 319 316 315 315 315 315 315 316 317 318 317 316 319 321 321 321 321 320 320 320 320 321 322 323 324 324 324 322 320
325 323 320 318 315 314 315 314 314 314 316 317 319 318 318 319 320 320 320 320 320 320 320 320 322 323 324 324 324 323 321 319
325 324 322 319 317 315 314 315 316 316 317 319 320 321 321 321 320 320 319 319 319 319 320 322 323 323 324 324 323 322 320 318
324 324 324 322 320 318 317 317 317 318 319 320 320 321 321 321 321 322 323 322 320 320 321 323 323 321 321 323 322 320 318 316
323 323 323 322 322 321 320 320 320 321 321 321 321 322 321 321 321 321 322 322 322 323 323 323 321 322 320 321 320 318 315 313
320 322 323 323 323 322 322 322 321 322 322 322 322 323 322 322 322 323 323 323 323 323 321 320 321 322 321 320 317 316 313 312
318 319 320 322 323 323 323 322 322 322 322 323 323 324 325 325 325 325 324 324 324 323 322 318 317 319 319 317 313 311 310 308
317 318 319 320 321 323 324 324 323 324 324 324 324 325 324 325 325 325 324 324 321 321 318 316 317 315 313 312 310 308 306 304
316 318 322 321 321 321 322 322 325 325 325 322 321 323 322 324 325 323 322 320 318 316 314 315 312 310 310 309 307 305 303 301
316 320 323 320 320 319 319 318 320 322 319 315 316 317 318 318 318 317 315 313 313 312 310 309 306 306 306 305 304 302 300 299
313 319 320 318 318 316 314 316 319 316 314 314 314 313 312 310 311 310 309 308 308 307 306 306 305 303 302 301 300 299 298 296

GFSFLT1_925_thetae_078.txt.gz
Theta_e
323 320 321 319 321 321 321 320 318 318 319 321 320 321 321 321 317 317 319 315 315 315 314 313 315 315 314 314 313 310 309 308
322 322 320 319 321 321 321 320 319 319 320 321 321 320 321 320 317 314 320 316 315 315 314 314 315 314 316 315 313 312 311 310
324 322 321 320 320 321 321 320 319 320 320 321 322 322 322 319 318 319 318 316 315 315 315 315 315 316 317 316 316 314 313 311
324 322 320 320 319 320 321 320 320 319 319 320 321 322 322 321 321 321 320 318 317 316 315 317 318 317 318 317 317 316 315 312
323 321 319 319 319 318 320 320 319 319 319 319 321 320 321 322 321 320 321 321 321 320 318 319 321 319 319 319 318 318 316 314
323 320 319 318 318 318 319 320 319 319 318 318 319 320 321 321 322 321 322 322 322 322 323 322 322 321 321 321 320 318 317 315
323 320 318 317 317 318 319 319 319 319 318 317 318 320 319 321 321 321 321 321 321 321 322 322 322 322 322 322 321 320 319 316
322 319 317 316 316 318 318 318 318 318 318 317 317 318 319 319 320 320 319 319 319 320 320 320 321 321 321 322 322 321 320 318
323 321 319 317 316 317 317 316 316 317 318 318 317 317 317 317 318 317 317 317 317 318 319 319 319 319 320 321 321 322 321 321
323 321 320 318 317 316 317 316 316 316 316 317 317 317 317 317 317 317 317 316 319 320 320 320 320 320 320 321 321 321 321 322
322 322 320 319 317 316 316 316 316 316 315 315 316 316 317 318 317 316 316 319 321 321 320 319 319 320 320 322 322 320 321 322
323 322 321 319 317 315 315 316 315 314 314 314 315 316 317 317 317 315 314 317 319 320 320 319 319 321 322 321 321 321 321 319
321 322 322 319 317 315 314 315 315 314 314 314 315 315 315 315 317 317 318 318 320 321 321 321 322 322 322 322 321 321 320 319
319 319 320 321 319 318 316 315 315 315 316 316 317 318 318 319 319 320 320 320 320 321 321 321 321 322 321 321 320 318 318 317
317 318 319 320 321 320 319 318 317 316 317 318 319 319 319 320 320 320 320 320 320 321 322 322 322 321 319 319 318 317 314 311
314 316 316 318 319 321 320 320 319 319 320 320 320 320 321 321 322 321 321 321 321 322 322 321 321 320 319 317 315 312 309 307
313 314 315 314 317 319 321 321 320 320 320 321 321 321 321 322 323 323 323 322 322 322 321 320 319 316 316 314 310 307 305 304
313 315 317 318 319 319 319 319 321 321 320 321 320 318 319 322 322 322 321 321 320 318 316 314 313 313 309 307 306 304 302 301
310 312 315 318 320 319 317 317 318 319 318 317 317 318 319 319 318 318 316 313 312 311 310 308 307 305 303 302 303 302 300 298

GFSFLT1_925_thetae_081.txt.gz
Theta_e
324 322 321 321 321 321 320 319 318 319 320 321 322 321 321 322 319 315 315 313 309 308 309 312 314 314 312 311 308 305 306 306
325 322 321 320 321 321 320 319 318 319 319 321 322 322 321 322 320 317 316 315 314 312 313 317 316 314 314 315 309 308 307 306
325 323 322 320 321 321 321 320 319 319 319 321 321 321 322 321 317 319 317 315 315 314 315 314 315 314 315 314 311 311 312 308
326 324 322 320 321 321 321 320 320 319 320 320 320 320 321 319 318 316 317 318 316 315 315 315 314 314 315 315 314 314 315 312
327 324 322 321 320 321 321 320 320 319 319 320 319 319 320 319 318 315 314 315 318 315 315 315 314 315 316 316 316 316 315 316
329 325 322 320 319 320 321 320 320 319 319 320 320 321 320 319 319 317 317 318 317 315 315 315 315 317 318 318 318 317 317 316
328 325 323 319 319 318 319 319 321 321 320 320 320 321 321 320 319 319 320 321 320 320 320 319 318 319 320 321 320 319 318 317
328 326 321 319 318 317 318 318 320 320 319 319 319 320 320 320 321 321 320 321 321 321 321 321 322 322 322 322 322 321 320 318
327 326 323 320 318 317 317 319 320 320 320 318 317 318 319 319 319 320 320 320 321 320 321 321 320 320 320 321 321 321 320 320
326 325 324 322 319 318 318 319 320 319 319 319 318 317 318 318 319 319 321 320 319 319 318 318 319 319 319 319 320 320 320 320
325 325 324 323 321 319 318 319 319 319 319 319 318 318 317 317 318 318 318 318 318 317 317 317 318 320 320 319 320 320 320 320
325 325 324 323 321 319 318 318 318 318 318 318 318 318 318 317 317 318 317 317 317 317 316 316 318 320 320 319 320 320 321 320
325 325 324 322 321 319 318 318 318 317 316 316 317 317 318 317 316 316 317 317 317 316 316 316 319 319 319 319 320 320 320 319
325 325 324 323 322 320 319 318 318 317 316 315 315 316 317 317 316 317 317 317 317 316 316 317 318 319 320 321 321 320 320 320
323 325 325 323 322 320 319 318 317 317 316 316 316 315 315 315 316 317 318 319 319 319 318 319 320 320 320 320 320 320 319 317
320 323 324 324 323 321 319 318 317 317 317 316 316 316 316 316 317 318 319 320 320 320 320 320 320 320 320 321 320 319 316 312
317 318 319 322 322 322 320 319 317 316 316 317 317 317 317 318 319 319 319 320 320 320 320 319 320 320 321 320 318 316 311 308
315 317 318 319 319 320 321 320 319 318 317 318 318 318 318 319 319 319 319 320 321 321 321 320 319 318 315 314 312 310 305 303
315 314 316 318 318 318 319 319 320 320 320 320 320 319 319 318 318 319 320 320 317 315 314 312 310 307 305 304 304 302 300 298

GFSFLT1_925_thetae_084.txt.gz
Theta_e
329 326 325 324 324 323 321 319 320 320 322 322 321 321 319 316 317 315 310 308 309 311 313 310 312 311 311 311 312 311 311 311
329 325 324 323 323 322 320 320 320 321 322 322 321 320 319 319 317 313 309 310 312 314 315 314 313 313 314 315 314 313 311 311
330 326 325 324 324 323 320 320 319 320 321 322 321 321 318 316 315 314 313 314 312 312 315 314 313 316 317 316 317 315 315 312
332 329 326 326 324 323 321 319 319 319 321 322 321 320 320 319 317 317 316 316 315 314 314 317 317 319 319 319 318 317 317 315
332 330 327 326 324 323 323 321 320 320 320 321 321 319 319 320 320 318 317 318 318 316 317 318 319 319 319 320 319 319 319 319
333 331 328 327 324 322 323 322 321 320 320 320 321 320 319 321 319 317 317 319 320 319 319 319 319 319 320 320 320 320 319 320
332 330 328 327 324 321 323 322 322 320 320 320 320 320 320 320 318 316 316 318 319 321 320 320 320 319 320 321 321 321 321 321
331 332 330 327 324 322 322 322 322 321 320 320 321 321 320 320 319 317 316 317 318 321 321 320 320 321 321 322 323 323 323 322
331 332 331 327 325 322 321 321 321 322 321 321 322 322 321 320 320 318 318 319 319 321 323 323 324 323 323 324 324 324 324 323
330 331 330 327 326 323 321 321 322 322 322 322 322 322 322 322 320 319 319 320 320 322 323 324 324 324 324 324 324 324 324 324
329 330 330 328 326 324 321 322 323 324 324 323 323 322 322 322 322 321 321 321 322 322 322 323 323 323 322 323 323 323 324 324
328 329 329 329 327 325 322 323 324 324 323 324 323 323 322 321 322 322 322 322 322 322 322 322 321 321 321 322 323 323 324 323
328 328 329 328 328 326 325 323 323 323 323 323 323 323 323 322 322 322 322 322 322 321 321 321 320 320 320 321 322 323 323 321
328 329 329 329 328 327 325 324 323 323 323 323 323 323 323 323 322 322 322 321 321 321 321 321 320 320 320 321 321 322 321 320
327 329 329 328 327 327 326 325 323 323 322 322 322 322 323 322 322 322 321 320 320 320 320 320 319 319 319 319 321 321 320 319
323 328 329 329 328 327 326 326 324 323 322 321 321 321 321 321 321 321 320 319 320 321 321 321 321 321 321 322 322 320 319 317
321 322 327 329 328 327 326 326 325 324 323 322 321 321 321 320 320 320 320 320 320 321 322 322 323 323 322 321 320 319 318 316
320 320 322 327 327 326 326 325 325 324 323 323 322 322 321 321 321 321 321 322 321 322 322 323 323 321 320 318 317 315 312 310
317 318 320 321 324 326 326 325 324 324 323 323 322 322 322 322 321 321 322 321 319 319 318 317 315 313 312 311 310 308 304 300

GFSFLT1_925_thetae_087.txt.gz
Theta_e
330 330 328 328 327 326 324 322 321 322 323 321 320 319 318 317 317 316 314 315 314 315 315 315 315 316 317 316 316 316 316 315
330 330 328 328 327 325 324 321 321 322 322 321 319 319 318 317 315 315 316 316 314 314 312 312 312 312 312 313 315 314 314 314
331 330 328 328 327 326 323 323 321 322 322 321 319 319 317 315 315 315 314 314 314 314 313 315 314 314 314 315 316 315 314 314
332 332 329 327 327 325 323 323 322 323 322 321 319 318 318 318 317 315 314 312 313 316 318 316 316 316 319 319 319 317 318 316
332 333 330 328 328 325 325 323 322 322 322 322 319 318 318 318 316 313 316 315 313 313 316 317 317 318 320 320 321 321 320 320
332 333 331 330 329 325 324 323 322 322 322 322 321 318 317 317 316 316 316 317 314 311 316 319 321 321 321 322 322 322 322 321
331 332 331 331 329 326 324 324 322 322 321 321 321 320 318 318 317 318 318 318 316 317 317 319 321 321 321 322 322 322 322 322
330 334 333 331 329 326 324 323 323 321 321 321 321 320 319 320 318 318 317 317 317 319 319 321 321 322 321 322 322 323 323 323
330 333 333 331 330 326 323 323 323 323 322 322 321 321 319 320 321 318 316 317 318 319 321 321 321 321 321 322 323 324 324 324
329 331 333 331 330 327 325 323 323 323 323 322 322 322 322 320 320 319 317 316 316 317 321 321 322 322 323 323 324 325 325 325
328 330 333 332 330 328 326 324 324 323 323 323 323 323 323 323 321 320 320 317 317 318 320 322 323 324 325 324 325 325 324 325
327 330 331 332 330 329 327 325 324 325 323 323 323 324 324 324 324 322 322 319 319 320 321 322 324 325 324 323 324 324 324 324
327 330 331 332 330 330 328 325 325 326 326 325 324 324 324 324 325 324 323 323 321 322 322 323 324 324 323 323 324 324 324 324
328 330 331 332 331 330 328 326 325 325 326 327 327 325 324 324 325 325 325 324 323 323 323 324 324 323 323 323 323 323 323 323
327 330 330 331 331 331 329 328 327 326 326 326 326 327 327 326 326 325 325 325 324 324 324 324 324 323 322 322 321 322 322 323
323 328 330 330 330 331 330 329 328 327 326 326 326 327 326 326 326 326 325 324 325 324 324 324 323 323 322 322 321 321 321 322
322 323 327 330 329 329 330 330 329 328 327 326 325 326 325 326 326 326 325 325 324 324 323 323 323 323 322 322 321 323 323 323
322 322 322 325 329 329 329 329 329 328 327 326 326 325 325 325 325 324 324 324 323 323 323 322 323 323 324 324 323 322 320 318
322 321 321 321 323 328 328 329 328 329 328 327 326 326 325 324 324 323 323 323 323 323 323 322 321 320 321 322 320 314 309 304

GFSFLT1_925_thetae_090.txt.gz
Theta_e
330 331 331 329 329 327 324 323 323 323 323 322 321 322 322 321 321 321 320 322 323 322 322 323 323 322 321 319 317 316 316 316
331 331 330 329 329 326 323 322 323 323 321 320 319 318 317 317 317 319 318 318 317 319 319 322 320 320 319 317 317 317 315 316
331 332 330 330 328 325 323 323 322 323 321 320 318 317 316 316 315 314 314 314 315 316 317 317 318 316 316 315 316 316 315 315
332 333 331 330 328 324 323 322 323 322 321 319 318 316 315 315 315 314 313 313 313 314 315 313 314 315 312 314 315 315 314 314
331 333 332 330 329 325 323 323 323 322 320 319 317 316 315 315 314 314 315 315 315 315 313 314 312 315 315 313 316 315 316 315
332 333 332 330 329 326 323 323 324 323 321 319 317 316 316 316 316 315 314 314 315 316 318 316 317 315 318 317 320 319 318 319
331 333 332 331 330 326 324 323 323 323 322 320 317 317 317 317 315 315 316 314 314 314 317 318 317 317 318 319 321 321 322 321
329 334 333 331 331 326 325 323 322 322 323 321 318 317 317 317 315 315 315 317 316 313 314 316 319 319 321 322 321 321 322 322
329 334 333 332 331 328 324 324 323 323 323 322 320 318 317 317 316 316 316 316 316 314 311 314 316 320 321 321 322 323 323 322
327 333 334 332 332 329 325 324 323 322 322 323 322 321 318 317 317 317 317 317 317 316 314 315 320 321 322 322 322 322 323 323
327 330 334 332 332 329 326 324 324 323 322 322 322 322 320 319 319 317 317 316 316 316 317 317 318 320 322 322 323 323 324 324
327 329 334 332 332 329 326 325 324 323 323 323 323 323 321 319 320 320 318 317 316 316 316 319 320 320 321 323 324 324 325 325
327 329 334 333 332 330 328 326 325 324 323 323 323 323 323 322 321 321 321 319 317 316 316 317 318 321 321 321 323 324 324 324
327 329 333 334 332 331 329 327 326 326 324 324 323 324 324 325 324 323 322 321 320 319 317 317 320 321 322 322 323 324 324 324
328 329 331 333 333 331 330 328 327 326 327 325 324 324 325 325 326 326 325 323 323 321 319 321 320 322 322 323 324 323 323 323
325 329 330 331 332 332 331 329 327 327 327 328 326 325 325 324 325 325 326 326 324 323 323 322 322 323 324 324 324 323 323 323
323 324 327 330 331 332 332 330 328 327 327 328 328 328 327 326 325 326 325 326 326 325 325 324 324 324 324 324 323 323 323 322
323 322 323 326 330 330 332 332 330 329 328 327 327 328 328 328 328 327 327 325 325 324 325 325 325 324 324 323 323 322 321 322
324 324 323 323 322 329 330 331 331 329 329 328 328 327 328 327 327 327 327 327 326 325 325 325 325 322 321 322 322 322 318 313

GFSFLT1_925_thetae_093.txt.gz
Theta_e
327 330 329 330 329 327 325 323 323 323 323 323 323 323 324 326 327 328 328 327 327 324 322 317 317 319 321 319 318 317 318 318
327 329 328 328 327 325 324 323 322 323 322 321 321 321 322 323 324 325 327 327 326 323 322 321 320 322 320 318 317 316 317 317
328 327 328 327 325 324 323 323 322 322 322 320 319 319 318 319 319 319 322 321 323 322 321 323 321 320 318 316 316 316 316 316
329 327 327 325 324 323 323 322 323 322 321 319 317 317 315 315 316 316 316 318 321 323 323 322 321 321 318 316 316 316 315 316
329 328 327 325 324 324 323 322 323 322 320 318 317 316 316 315 315 315 315 317 320 320 321 320 320 318 317 316 316 316 315 315
330 328 328 325 324 323 323 322 323 321 320 318 316 315 315 315 315 314 315 316 317 317 317 316 314 313 314 314 315 315 315 314
330 328 328 325 323 323 323 323 323 321 319 317 316 315 314 314 314 315 314 314 314 315 314 314 314 313 314 313 313 315 315 314
331 329 328 326 324 322 323 323 324 321 319 317 316 316 315 315 314 315 314 314 315 314 314 313 313 313 315 315 313 316 318 319
331 330 328 327 324 323 323 322 324 322 320 318 316 317 316 315 314 316 314 314 314 315 316 316 316 314 315 316 315 318 320 320
331 330 329 328 325 323 323 322 322 323 322 319 317 317 317 316 315 314 315 315 314 315 315 318 318 317 316 316 318 320 321 318
331 330 329 329 326 324 323 322 322 322 323 322 319 317 317 317 315 315 315 315 315 316 314 313 316 318 319 319 320 320 321 321
324 331 330 330 327 324 323 323 322 322 322 322 322 319 318 317 317 315 316 316 316 316 315 314 314 314 316 319 320 321 322 322
321 331 330 330 328 324 324 323 323 322 322 322 322 322 320 318 317 317 316 317 316 316 315 315 315 314 317 320 321 321 321 322
322 331 330 330 328 325 324 323 322 322 322 322 322 323 322 320 319 319 317 317 316 315 316 316 317 318 318 318 319 320 321 321
323 331 330 330 329 327 325 324 323 322 323 322 322 322 323 322 319 319 320 319 317 316 316 315 316 316 318 319 321 320 320 320
323 324 330 330 329 328 327 325 324 323 323 323 322 321 321 322 322 321 320 320 320 319 318 316 316 316 316 319 321 321 321 321
321 321 325 330 329 329 328 326 325 325 325 323 323 322 322 323 324 324 323 322 321 320 320 319 318 317 317 317 318 320 321 323
322 322 321 320 322 329 329 327 326 325 325 325 324 323 323 323 324 324 324 325 325 323 322 321 320 319 320 320 320 322 323 323
322 321 321 320 321 321 321 329 327 326 325 325 326 326 325 324 324 323 323 324 324 325 324 323 323 322 322 323 323 322 319 316

GFSFLT1_925_thetae_096.txt.gz
Theta_e
324 328 329 328 328 327 326 325 325 324 324 325 325 326 328 328 329 328 327 327 327 326 322 315 309 315 317 313 315 316 318 318
327 328 327 326 326 326 325 324 324 323 323 324 322 323 325 328 328 328 327 327 327 324 322 314 311 317 317 315 314 317 318 318
326 326 325 325 324 324 323 323 323 323 322 321 321 321 321 323 325 327 328 327 325 324 321 315 314 319 318 317 317 317 317 317
327 326 324 323 323 322 323 323 322 322 321 321 320 319 319 319 321 322 324 327 327 323 322 316 318 319 318 318 317 317 317 317
327 327 324 323 322 322 323 323 322 320 321 320 319 317 316 316 317 318 321 324 325 323 320 317 319 319 317 317 316 316 316 315
327 327 325 323 322 322 323 322 322 321 321 320 318 317 317 316 315 316 318 319 320 320 319 319 319 318 317 316 316 315 315 315
327 327 325 323 322 322 321 322 320 320 320 319 318 317 316 315 315 316 317 316 316 316 317 318 319 319 317 316 316 316 315 315
327 327 324 323 321 321 321 322 319 320 320 319 317 316 316 315 315 315 316 317 318 319 319 319 319 318 317 316 315 315 315 315
328 327 324 323 322 321 322 322 320 320 319 318 316 315 315 315 315 315 315 316 317 318 317 317 318 317 316 315 314 312 313 314
329 327 325 324 322 322 322 322 321 320 319 318 316 315 315 315 315 315 315 314 315 315 315 314 314 314 314 314 314 315 314 313
329 328 326 324 323 322 321 322 322 320 320 318 316 316 315 315 314 315 314 314 314 314 314 314 314 314 314 316 316 316 317 315
330 329 327 326 323 322 321 321 322 321 321 319 317 316 316 316 315 314 315 314 314 315 314 315 314 316 316 315 315 316 316 317
329 329 328 325 323 322 321 321 321 322 322 321 319 317 317 316 316 314 314 315 314 314 315 315 316 317 317 317 317 317 319 318
320 329 329 326 324 323 322 321 321 321 322 322 321 319 317 317 317 316 314 315 315 315 314 315 314 314 315 317 318 318 319 319
325 329 329 327 325 323 323 322 321 321 321 322 322 322 320 318 317 317 316 315 315 315 316 315 315 314 313 314 316 318 319 320
325 328 329 328 326 324 323 322 322 321 321 321 320 321 322 321 319 317 317 316 316 315 315 315 315 315 315 316 316 316 317 318
322 324 328 329 327 325 324 323 322 321 321 320 320 320 321 322 321 319 318 318 318 316 315 315 314 314 314 315 316 318 319 320
321 320 319 319 321 327 326 324 323 322 321 321 321 321 320 321 322 321 319 319 319 319 318 316 315 315 315 315 315 315 317 318
314 313 312 310 312 317 319 326 325 323 323 322 322 322 321 320 321 321 322 321 320 320 319 319 319 318 318 317 316 315 315 316

GFSFLT1_925_thetae_099.txt.gz
Theta_e
312 314 324 328 328 328 329 328 326 325 327 328 328 328 329 330 329 328 327 327 327 326 323 320 323 319 317 318 318 317 319 318
316 322 326 326 327 327 327 326 325 325 325 325 325 325 326 328 327 328 327 327 327 326 324 324 318 315 316 316 316 316 318 318
324 326 325 325 325 325 325 325 324 325 324 323 323 323 324 325 327 327 327 327 326 325 323 323 314 314 315 314 315 316 316 317
325 326 325 325 324 324 323 323 325 323 323 323 322 321 321 322 323 325 327 326 325 325 321 321 314 315 316 313 316 317 316 317
324 326 325 324 324 323 323 322 324 322 321 321 320 318 318 319 321 321 324 327 327 326 322 319 312 317 316 314 315 317 317 316
324 326 325 324 323 322 322 322 322 321 320 320 320 319 318 319 319 320 321 322 323 324 323 317 313 318 317 316 316 317 317 316
322 325 325 323 321 321 322 321 321 320 319 320 320 319 317 317 317 317 318 320 322 323 320 318 315 317 317 316 316 317 317 316
321 326 324 323 321 321 321 321 320 318 319 320 319 318 318 317 316 316 317 317 319 320 319 317 316 317 317 317 318 317 317 314
321 326 324 323 321 321 321 321 320 318 319 319 318 318 317 316 316 316 316 316 316 317 318 317 316 316 317 317 316 315 314 313
322 326 324 323 322 321 321 320 320 319 319 318 318 318 316 316 315 316 316 317 316 316 316 316 316 316 316 316 316 315 315 315
325 326 324 323 322 321 321 321 320 319 318 317 316 316 316 316 315 315 316 317 318 318 317 318 318 317 316 316 316 315 314 313
328 327 324 323 322 321 321 321 320 319 318 317 316 315 315 316 315 315 315 316 316 317 317 317 316 315 316 315 316 315 314 315
318 327 325 324 322 321 321 321 320 319 318 317 316 316 315 315 315 315 315 315 315 315 315 315 316 316 315 315 315 315 316 315
319 327 327 324 323 322 321 321 321 320 319 318 316 316 316 315 315 315 315 314 314 314 314 315 315 315 315 315 315 315 315 315
321 324 327 325 323 322 321 321 321 321 319 319 318 316 316 316 316 315 314 315 314 314 315 314 314 315 314 315 316 316 316 316
320 325 327 325 323 323 322 321 320 321 321 320 319 318 317 317 316 316 315 315 315 314 314 314 315 314 315 316 316 317 317 318
316 316 316 323 324 323 322 321 321 320 320 321 320 321 320 318 317 317 317 316 315 315 314 314 314 314 314 314 314 314 315 316
312 311 311 312 313 316 323 322 321 321 321 321 320 320 321 321 320 318 317 317 316 315 315 314 314 314 314 314 314 314 314 315
309 308 307 306 308 309 312 322 322 322 321 321 320 319 320 320 321 321 319 318 318 317 316 315 315 314 314 314 314 314 315 315

GFSFLT1_925_thetae_102.txt.gz
Theta_e
311 313 314 321 327 328 329 329 332 331 331 330 330 330 329 331 329 330 328 327 327 327 326 324 323 321 321 319 317 318 319 318
313 318 315 321 326 327 328 328 330 329 326 326 328 328 329 330 331 328 328 327 327 326 325 321 319 319 320 319 317 317 317 317
312 323 323 323 325 326 325 326 328 326 324 324 325 325 324 326 326 328 328 327 327 326 324 321 322 319 319 318 317 316 317 317
311 322 323 324 325 324 325 325 326 324 323 323 321 321 322 324 325 327 327 327 326 326 323 320 320 319 318 317 316 317 317 317
310 317 322 323 324 324 323 324 324 323 324 321 321 320 320 320 322 324 326 326 325 325 323 320 319 315 313 315 316 317 317 316
313 313 322 324 324 322 323 324 322 323 322 322 321 319 319 318 319 321 323 324 324 324 325 322 320 314 315 314 315 316 317 317
316 315 322 324 323 322 322 322 321 320 322 320 319 318 318 318 318 318 320 320 321 324 322 321 320 314 316 314 315 316 316 317
316 317 322 323 322 322 321 321 320 319 319 318 319 319 319 318 317 317 318 319 320 322 323 319 317 316 316 314 315 316 316 317
317 317 320 323 323 322 322 321 320 319 319 318 319 319 318 317 317 316 317 318 319 320 322 319 316 316 315 313 314 316 317 316
317 318 321 323 323 322 322 321 321 319 319 316 318 318 318 317 317 317 317 317 317 319 320 318 316 316 314 314 312 315 316 315
317 318 323 324 323 322 321 321 320 319 318 316 318 318 318 317 317 316 317 317 317 317 318 316 316 316 314 313 315 314 316 314
316 319 324 323 322 321 321 320 320 319 318 315 316 317 317 317 316 316 316 317 316 316 317 316 316 316 315 316 316 315 314 315
317 320 322 323 322 321 320 320 320 319 317 315 315 317 316 316 316 315 316 317 317 316 317 316 316 316 316 316 316 315 314 315
319 318 324 323 322 321 320 320 320 319 318 316 314 315 315 315 315 315 315 316 317 317 317 317 316 316 316 315 315 315 315 315
317 317 325 323 322 320 320 320 320 320 318 316 315 315 315 315 315 315 315 315 315 315 315 317 317 317 316 315 315 315 315 315
314 314 314 322 322 322 321 321 320 319 319 318 316 315 316 315 315 315 315 315 314 314 314 314 315 315 316 315 315 315 315 315
312 310 311 311 312 321 321 321 321 320 319 319 318 317 316 316 316 315 314 314 314 314 313 314 314 314 315 315 315 315 315 315
309 307 306 306 307 307 317 321 321 321 321 320 319 319 318 317 316 316 316 315 314 314 314 314 314 314 314 314 314 314 314 315
305 303 301 301 303 304 308 319 322 321 320 321 320 320 320 320 318 317 317 316 316 315 315 315 314 314 314 314 314 314 314 314

GFSFLT1_925_thetae_105.txt.gz
Theta_e
315 314 314 315 317 324 328 329 329 330 332 332 330 330 331 330 328 327 326 327 327 325 326 327 325 324 322 320 320 320 319 318
314 314 315 318 316 324 327 328 329 329 329 330 328 329 328 329 327 326 327 326 326 326 326 327 325 323 321 318 318 319 317 318
317 316 318 322 322 325 327 327 327 328 328 328 328 327 326 326 326 326 327 326 327 326 326 326 325 323 320 319 318 318 317 317
320 318 316 320 324 325 326 327 326 328 328 327 325 325 324 325 324 326 327 328 327 327 326 322 320 319 317 318 318 319 317 317
319 319 318 318 322 325 325 325 325 327 326 325 324 324 324 323 324 327 327 327 327 326 324 321 319 317 317 318 318 318 318 317
319 319 318 319 321 324 325 324 323 325 325 324 323 323 322 321 322 323 324 325 326 324 324 321 319 319 319 319 319 319 318 318
318 318 318 319 323 324 324 322 323 322 323 322 321 321 321 320 319 319 321 324 325 323 322 321 320 317 317 317 317 318 318 318
319 319 319 319 321 325 323 322 322 321 322 321 320 321 320 319 318 319 319 321 321 323 320 320 320 319 317 317 316 317 318 318
318 318 318 318 322 324 323 322 321 320 320 319 320 320 320 320 319 318 319 320 319 321 322 321 319 317 315 314 314 315 317 317
318 318 318 318 321 324 322 321 321 320 319 318 318 319 320 320 318 317 317 318 318 320 322 321 319 316 315 314 314 315 316 317
318 319 319 319 320 324 322 321 321 320 319 321 319 318 319 319 318 316 318 318 317 317 320 321 319 317 316 314 314 315 316 316
318 319 318 318 319 324 322 321 321 320 319 319 317 317 318 318 317 317 318 318 317 317 319 319 317 317 315 314 313 313 315 314
317 316 316 319 321 323 322 321 321 319 319 318 316 316 317 317 317 317 317 317 316 316 317 317 317 316 315 314 312 312 314 314
317 314 313 317 323 322 321 320 320 319 318 316 314 315 316 317 317 317 317 317 317 315 317 316 316 316 315 314 314 312 313 314
314 312 310 312 323 321 320 320 320 319 318 316 314 314 316 316 316 316 316 316 316 316 317 316 316 316 316 315 315 314 313 313
312 309 307 307 311 318 320 320 320 319 318 317 315 314 315 316 316 316 316 315 316 317 316 316 316 316 316 316 315 315 315 315
308 305 304 303 304 308 320 321 320 319 318 317 316 315 315 315 316 316 316 315 315 316 315 316 317 316 316 316 315 315 315 315
304 302 301 300 300 303 310 318 321 320 319 319 317 316 316 316 316 316 315 315 315 315 315 314 314 315 315 317 316 316 315 315
300 299 297 296 298 299 302 316 321 321 321 320 319 318 317 316 316 316 316 315 315 315 314 314 314 314 314 314 315 315 316 316

GFSFLT1_925_thetae_108.txt.gz
Theta_e
320 319 319 318 319 320 323 328 332 334 337 335 333 332 332 333 333 332 332 331 330 331 330 329 327 326 325 323 321 321 321 321
317 318 321 322 322 322 321 325 330 332 335 333 331 330 331 332 331 331 331 330 330 329 328 328 326 324 322 320 320 320 320 320
318 321 323 323 324 325 325 327 330 332 332 331 331 330 330 330 330 331 329 329 328 327 327 326 326 321 321 320 321 320 319 319
321 323 323 323 324 325 326 327 330 331 331 329 331 330 330 329 329 328 327 328 326 327 326 326 325 323 320 319 320 319 318 320
323 323 323 323 324 325 326 327 329 330 331 329 331 330 329 329 328 328 327 326 326 326 326 324 326 323 320 319 319 319 319 320
323 323 323 322 323 327 327 327 328 328 330 329 330 331 331 330 329 328 325 326 325 328 326 325 324 322 322 319 319 319 318 319
322 322 322 322 323 325 328 328 327 326 328 329 330 332 331 328 326 325 324 325 325 326 325 324 322 320 319 318 319 318 318 319
321 321 322 322 322 323 327 328 326 325 326 327 330 331 329 328 327 325 323 324 325 324 323 321 320 319 318 318 319 319 319 318
320 320 321 321 321 323 325 327 325 324 324 325 327 328 329 327 325 323 321 323 324 324 322 321 321 319 318 318 319 319 319 318
321 321 321 321 321 322 324 326 325 324 323 323 323 325 327 326 324 323 322 323 323 324 323 322 320 318 318 317 318 318 319 318
321 320 320 318 318 320 323 326 324 323 322 321 320 326 326 325 324 321 321 321 322 322 322 321 319 318 317 316 316 317 318 319
320 319 317 314 317 315 324 324 323 323 321 320 322 325 325 324 323 320 320 322 321 321 323 321 319 318 317 316 315 315 316 317
318 317 314 312 310 307 323 323 323 322 321 321 322 323 324 322 321 320 320 321 321 321 320 319 319 318 316 315 314 315 315 316
317 316 313 310 306 306 321 323 323 322 321 321 321 320 322 320 321 320 320 321 321 320 320 318 317 317 316 315 314 314 315 315
313 313 312 306 304 303 307 323 322 320 320 320 319 319 320 320 320 320 320 320 319 319 318 319 318 317 316 315 314 313 313 314
309 308 307 304 302 301 302 321 320 319 319 318 318 318 318 320 320 319 319 319 319 319 319 319 318 317 316 315 314 313 313 313
306 303 302 301 299 299 300 317 320 319 319 318 317 317 317 318 320 319 319 318 319 319 318 318 317 317 317 316 315 314 313 313
303 299 299 297 297 297 299 304 320 319 319 318 318 318 317 317 318 318 319 319 319 319 318 319 318 317 316 316 315 315 315 314
299 297 296 294 294 296 296 306 317 316 315 317 318 318 319 319 318 318 318 318 318 318 318 318 317 317 317 316 316 315 315 315

GFSFLT1_925_thetae_111.txt.gz
Theta_e
322 322 322 322 322 323 325 328 333 338 339 341 340 338 336 336 335 335 335 335 335 334 333 332 332 331 329 327 327 326 326 325
322 322 321 321 322 322 322 323 326 334 336 338 340 336 335 335 336 335 334 333 333 331 331 332 330 328 326 326 325 324 323 324
323 320 320 323 324 324 325 325 325 328 333 335 339 334 333 333 334 335 334 333 331 330 331 331 329 327 325 325 323 321 321 323
319 319 323 324 324 325 326 326 327 328 332 336 335 333 332 332 332 334 334 332 331 331 331 329 328 327 325 323 321 321 321 322
319 322 323 324 325 325 328 327 327 329 332 334 333 333 332 331 332 333 333 332 331 330 329 328 327 325 323 321 321 321 320 321
322 323 323 322 322 324 327 329 329 329 331 334 332 332 332 333 333 332 331 331 329 329 328 327 326 324 323 322 321 320 319 319
322 322 321 321 322 323 325 328 329 329 330 332 333 331 334 333 333 333 330 330 330 328 327 326 325 325 323 322 321 320 318 318
321 321 321 320 321 323 323 324 328 329 330 330 332 331 334 334 334 333 331 329 329 327 326 325 324 323 323 321 320 319 319 319
321 321 322 321 321 322 322 324 325 329 329 327 330 330 332 334 332 330 329 327 328 326 325 324 324 323 322 321 320 319 319 319
321 321 321 321 320 319 320 321 324 326 328 327 328 329 331 332 332 331 328 326 326 326 324 323 322 322 321 320 319 319 319 319
321 321 319 318 317 316 318 320 324 325 327 326 327 327 330 331 330 329 327 325 325 325 323 323 322 321 320 319 319 319 319 319
320 319 317 316 315 314 315 316 324 326 326 325 325 325 328 330 329 327 325 324 324 324 324 322 321 320 319 318 318 319 319 319
319 319 317 316 313 311 310 309 321 326 325 324 323 323 327 328 327 324 324 324 324 323 324 322 320 320 318 317 317 317 318 319
317 316 315 314 312 309 306 305 308 323 323 322 322 322 326 326 325 322 322 324 323 322 322 322 319 319 318 317 317 316 317 317
313 312 311 311 309 306 303 302 306 323 322 322 323 324 325 323 322 322 321 323 322 321 320 320 318 319 318 317 316 315 315 316
310 308 307 307 305 302 300 301 304 320 322 322 321 322 322 322 321 321 321 322 322 320 319 319 319 318 317 316 316 315 315 315
305 304 303 303 301 298 297 298 299 306 320 319 319 320 321 322 321 320 320 321 321 321 319 319 319 319 318 317 316 315 314 314
301 300 299 298 297 295 296 296 297 310 319 318 318 318 320 320 320 320 320 320 320 321 321 321 320 320 317 317 316 316 314 313
297 296 295 295 294 294 294 294 296 311 313 316 318 318 318 319 319 320 320 320 320 320 320 320 320 320 318 317 316 316 316 315

GFSFLT1_925_thetae_114.txt.gz
Theta_e
322 322 322 322 322 323 327 333 341 344 344 341 344 343 340 339 338 339 339 337 338 338 336 336 335 334 332 332 331 330 330 329
324 323 323 324 324 323 323 326 336 341 344 344 344 344 340 338 338 338 336 335 335 335 334 335 333 332 331 330 329 328 328 327
324 324 323 322 323 324 324 324 324 333 340 340 342 342 341 338 337 337 336 335 336 333 334 332 331 330 328 326 327 325 325 326
324 324 324 323 324 325 325 325 326 327 326 336 337 340 338 335 335 334 337 336 334 333 332 331 330 329 328 327 325 324 323 324
320 322 325 324 324 325 326 327 328 328 328 331 338 336 335 334 333 333 335 335 333 331 330 331 329 327 328 326 325 324 323 323
320 324 324 324 324 324 326 327 329 329 329 331 337 336 335 333 332 332 332 333 332 331 331 331 329 327 326 326 324 323 322 322
323 323 322 322 322 323 324 324 325 328 329 330 336 335 334 332 332 332 331 333 332 331 330 328 326 326 326 326 324 322 321 322
321 322 322 322 322 323 323 323 323 325 329 329 334 336 333 333 333 334 332 331 331 331 330 328 326 326 325 324 323 322 321 320
322 322 323 322 321 320 320 319 320 323 323 329 331 332 333 332 333 335 332 330 330 330 329 328 326 325 324 323 322 321 320 320
322 322 321 319 318 318 317 317 318 321 322 324 331 330 331 331 333 334 331 330 329 328 328 326 326 324 323 323 322 321 320 319
321 320 319 317 317 316 314 313 315 317 317 322 329 328 327 329 332 332 330 329 328 328 326 325 324 322 323 322 321 320 320 319
321 320 318 317 316 314 313 311 310 310 312 320 328 327 327 329 331 332 330 328 326 327 325 324 323 321 321 321 320 320 319 319
317 316 314 314 314 312 310 308 307 306 309 322 327 326 326 328 330 330 329 326 325 325 324 323 322 322 321 321 320 320 319 319
313 312 312 310 310 309 307 305 304 303 306 317 325 325 325 327 329 328 326 325 324 324 325 323 321 320 320 320 319 319 319 319
310 309 308 306 306 305 303 302 301 300 303 315 323 323 323 325 327 325 324 324 323 323 323 323 321 319 320 319 318 317 318 318
307 306 304 302 302 300 299 298 298 298 300 309 322 322 323 324 324 323 322 323 322 321 321 320 319 319 318 318 317 317 316 317
303 301 299 298 297 296 296 296 296 297 301 309 322 322 324 323 322 322 321 323 322 321 320 320 319 318 318 317 317 316 316 315
299 298 296 295 294 293 295 295 295 295 302 316 321 322 322 322 321 321 322 321 321 320 319 319 319 318 317 316 316 315 315 315
296 295 293 292 292 292 292 293 293 293 294 299 312 320 321 322 321 321 321 321 321 321 320 319 319 319 318 316 315 316 315 314

GFSFLT1_925_thetae_117.txt.gz
Theta_e
319 320 321 321 321 324 328 339 340 341 343 344 343 340 341 342 342 341 339 339 339 340 339 337 336 335 334 333 332 332 331 330
319 319 321 321 320 321 327 343 342 343 344 344 344 343 341 340 340 340 340 338 337 337 339 336 336 335 333 332 332 331 330 329
319 319 320 323 323 324 328 342 344 343 343 342 342 344 343 342 340 339 338 339 337 335 336 335 335 335 332 331 330 329 329 328
320 320 319 323 324 325 325 326 338 344 342 342 342 341 342 340 339 338 337 337 336 334 334 333 333 333 331 329 328 327 326 326
319 321 319 322 324 325 326 327 327 328 331 340 341 341 339 340 338 337 336 336 336 334 333 332 333 332 330 328 326 326 324 323
318 321 321 323 324 325 326 326 327 327 327 328 335 337 337 338 337 336 335 334 335 336 334 332 332 331 329 327 326 325 324 323
320 319 319 320 319 319 319 320 321 322 323 326 331 336 336 335 334 333 333 333 333 335 332 331 330 329 328 327 325 325 325 323
318 320 318 317 317 316 316 316 316 317 319 321 322 331 335 334 333 332 331 330 330 333 332 331 330 329 327 326 325 325 324 323
320 318 316 316 316 315 314 314 313 313 315 317 319 321 332 334 333 332 331 331 331 331 332 331 330 329 326 325 324 325 323 322
318 317 315 315 315 314 313 312 311 310 310 310 313 316 321 333 333 332 332 332 331 331 331 331 329 327 326 324 324 324 323 321
316 315 314 314 314 312 310 309 308 307 307 307 308 312 318 330 332 331 329 332 331 330 330 330 328 327 325 323 323 323 322 321
313 311 310 309 309 309 307 306 305 304 304 304 305 311 319 326 330 328 328 331 329 329 329 328 328 325 325 323 322 322 321 320
309 308 307 305 305 305 303 302 302 301 301 301 303 311 323 326 327 326 329 331 329 328 327 326 325 324 323 323 322 321 320 319
306 304 303 302 302 301 300 299 298 298 298 299 301 309 324 327 327 327 329 328 327 327 326 325 324 323 322 321 321 320 319 319
303 301 299 299 299 297 297 296 297 297 297 297 300 305 320 325 325 326 328 327 326 325 324 323 322 322 321 321 321 320 320 319
301 299 298 297 296 295 294 295 295 295 296 297 299 304 317 324 324 325 326 325 325 324 324 324 322 320 320 320 319 319 319 319
299 297 296 294 293 293 293 293 293 294 295 296 298 307 318 322 322 324 324 324 323 323 323 323 321 320 319 319 319 318 318 318
296 295 293 292 292 291 292 292 292 292 293 294 295 298 322 322 323 323 323 322 322 321 321 320 319 317 317 318 318 317 317 316
294 293 291 290 290 290 291 291 290 290 291 292 293 294 304 322 322 322 322 322 321 320 320 319 318 317 316 316 315 315 316 315

GFSFLT1_925_thetae_120.txt.gz
Theta_e
315 319 320 320 320 320 337 338 340 341 341 341 341 341 341 341 341 341 341 339 339 339 340 339 338 337 336 335 334 333 332 330
316 318 319 320 320 319 328 336 339 341 341 341 340 342 342 342 342 341 341 340 340 341 341 339 337 336 335 334 333 332 331 330
315 316 316 318 319 319 325 336 339 341 342 341 341 339 340 341 342 342 340 340 340 340 340 340 338 336 335 334 332 331 330 330
316 316 315 318 322 329 332 338 340 341 341 342 342 341 340 339 340 340 340 340 339 339 337 336 335 335 334 334 332 330 328 328
316 316 316 320 322 327 337 341 342 342 342 341 340 339 339 341 340 339 339 339 339 338 336 335 335 335 334 333 331 329 328 326
320 319 318 317 318 319 319 320 320 323 324 330 339 340 339 339 340 339 339 338 338 337 337 335 333 332 333 333 330 328 328 325
319 317 316 314 315 315 316 316 314 315 316 319 320 326 331 335 337 336 336 336 337 336 336 335 333 332 332 331 330 327 326 325
317 316 314 313 312 312 312 313 311 311 311 311 312 314 317 324 333 336 335 334 334 334 334 334 333 332 331 331 329 326 325 324
315 314 313 312 311 309 309 309 308 309 309 309 309 310 312 314 322 332 333 334 334 334 331 333 332 332 331 330 329 327 324 324
313 312 311 309 308 307 306 306 306 306 306 307 308 308 310 311 316 327 331 333 332 331 330 330 331 332 330 329 328 326 324 323
309 307 307 306 305 304 303 302 302 302 303 303 303 304 306 311 313 319 329 332 331 330 331 330 329 330 330 329 326 325 323 323
305 304 304 303 302 301 300 300 299 299 300 300 300 302 302 306 312 318 323 330 331 331 331 331 329 329 329 327 325 324 322 322
303 301 300 299 298 298 297 297 297 297 297 298 298 299 300 303 311 321 323 328 329 328 330 330 329 327 328 326 324 322 322 322
301 299 298 297 296 295 295 295 295 295 296 297 297 298 299 302 310 323 326 328 327 329 329 328 328 325 326 325 324 322 322 321
299 297 296 295 294 294 293 294 294 294 294 295 296 297 298 300 307 318 326 326 327 328 328 328 326 324 324 323 323 322 322 321
297 296 294 294 293 292 292 292 292 292 293 294 295 295 297 299 306 316 324 325 326 327 326 325 324 323 322 322 322 321 320 320
296 294 293 292 291 291 291 291 291 291 291 292 293 294 295 298 306 316 323 324 325 325 325 325 322 321 321 321 321 320 320 320
294 293 292 290 290 290 290 290 290 290 290 290 291 292 293 296 302 317 323 323 323 324 322 323 321 321 320 320 320 319 319 318
293 292 290 289 289 289 289 290 289 289 288 288 289 290 291 294 298 308 322 322 321 322 321 321 322 320 319 318 318 318 318 317

GFSFLT1_925_thetae_123.txt.gz
Theta_e
314 315 320 328 335 338 339 340 341 341 340 338 338 339 339 338 337 335 336 334 335 337 339 339 338 337 336 335 334 333 333 331
315 318 316 317 319 334 338 338 340 341 341 340 339 339 339 339 340 340 340 337 338 337 337 339 340 338 337 336 334 333 332 331
313 314 317 317 315 317 331 337 338 340 340 340 339 339 339 339 340 340 340 340 340 338 337 338 339 338 337 336 335 331 330 331
314 314 314 315 315 314 317 327 334 338 340 340 339 339 339 340 340 340 340 341 340 340 339 339 340 337 336 335 334 332 329 329
313 317 318 318 322 328 332 333 336 338 340 339 339 337 337 339 339 341 341 340 340 340 340 340 339 339 337 335 334 333 331 328
317 316 315 314 314 316 320 325 327 333 339 339 337 335 336 335 338 338 339 340 340 339 339 339 338 337 335 334 333 332 331 328
315 314 313 311 311 311 311 311 311 314 318 319 320 327 323 329 332 335 338 337 337 338 339 338 336 336 335 334 332 333 331 329
313 311 310 308 308 308 308 308 307 308 310 311 312 313 314 317 320 329 333 335 335 336 337 337 336 335 335 333 331 332 330 328
310 309 308 307 305 304 304 304 304 305 306 307 308 309 310 311 314 317 326 332 333 335 335 335 335 334 334 332 330 330 330 328
307 306 305 303 302 301 301 301 301 301 302 304 306 307 307 308 310 312 315 325 330 332 333 334 334 334 330 331 329 329 329 328
304 303 301 300 299 299 299 298 298 298 299 300 300 301 303 304 306 309 313 317 324 329 331 331 332 330 329 329 329 329 327 326
301 300 299 298 297 296 296 296 296 297 297 297 298 298 299 301 303 306 310 315 319 326 329 330 330 328 328 328 328 327 326 325
298 298 297 296 295 294 294 294 294 295 295 296 297 298 299 299 301 304 307 312 319 322 328 329 329 328 327 327 326 326 325 323
298 296 295 294 294 293 293 293 293 293 293 293 295 296 296 297 298 302 307 313 320 324 328 329 329 328 327 327 326 324 324 323
297 296 294 293 292 292 292 292 292 291 291 292 293 293 294 295 296 299 305 311 320 324 326 328 328 327 326 325 325 324 323 323
296 295 293 292 292 291 291 291 291 290 290 290 291 292 293 293 295 298 303 308 318 325 326 327 327 326 325 324 325 323 322 321
295 293 292 291 290 290 290 290 290 290 290 290 290 290 291 292 294 296 299 308 318 323 325 326 325 324 324 325 324 322 321 321
294 292 290 289 288 288 288 289 289 289 289 288 288 288 289 291 292 295 298 304 316 323 325 325 324 323 324 324 322 321 320 320
291 289 288 287 286 286 287 288 287 287 287 287 287 287 288 289 291 293 295 299 311 323 323 324 322 321 323 323 321 320 319 319

GFSFLT1_925_thetae_126.txt.gz
Theta_e
313 313 324 332 335 338 339 339 336 332 333 334 333 333 331 331 331 331 331 332 332 334 335 334 335 336 336 335 334 333 333 331
313 314 314 319 331 335 337 339 340 338 335 335 335 334 334 333 331 331 330 331 331 333 334 336 336 336 336 336 335 333 331 332
312 313 312 313 321 333 336 337 339 340 338 336 335 335 335 335 335 335 336 333 334 333 334 336 338 338 337 336 335 332 331 331
312 312 311 312 312 320 332 335 337 339 339 339 338 337 337 337 337 338 338 338 339 337 337 337 337 338 338 336 336 334 330 330
311 313 315 316 316 312 313 329 334 337 339 339 338 337 336 337 337 337 339 340 340 339 338 338 337 337 338 336 335 334 332 329
315 314 312 312 317 320 323 328 334 336 338 339 337 337 337 336 337 337 335 336 338 338 339 340 338 338 338 338 335 333 332 331
312 311 310 308 309 309 311 317 317 326 334 334 335 334 334 334 333 331 329 326 335 336 339 339 339 339 338 337 336 334 333 332
307 306 305 304 304 306 305 306 306 308 311 312 314 314 317 323 330 329 325 328 334 336 336 337 337 338 337 335 335 334 333 331
303 303 302 302 302 301 302 302 302 303 304 305 306 307 308 310 313 317 326 329 331 333 334 334 335 335 336 334 333 333 332 330
303 301 300 299 298 298 298 299 299 299 301 302 303 304 306 306 308 310 311 313 320 327 330 332 334 333 334 333 332 332 331 329
301 300 298 297 296 296 295 296 296 296 297 298 300 301 303 304 306 306 307 309 312 315 324 329 331 332 334 332 330 330 328 327
299 298 297 296 295 295 294 294 294 293 294 295 296 298 299 302 303 304 305 306 309 312 316 321 326 328 328 330 330 327 326 326
298 296 295 294 294 293 293 293 292 292 293 293 294 295 295 296 297 299 301 303 305 308 314 318 322 326 327 326 326 325 325 325
296 295 294 293 292 292 292 292 291 291 291 291 292 292 293 293 294 296 298 300 303 307 312 318 321 324 327 327 325 325 326 325
295 294 293 292 291 291 291 291 291 290 290 290 291 291 291 291 292 294 295 298 301 305 312 320 322 324 326 327 326 325 324 325
294 292 292 290 290 289 290 290 290 289 289 289 289 290 290 290 291 292 293 296 300 304 309 319 323 325 327 327 326 325 323 323
292 291 290 289 288 288 288 289 288 288 288 288 288 288 288 289 290 291 292 295 298 301 308 319 325 326 327 326 326 324 323 322
290 289 288 287 287 287 288 288 287 287 287 286 286 286 286 287 289 290 292 293 295 299 306 318 324 325 325 324 325 323 322 321
288 287 286 286 286 286 286 287 287 286 285 285 284 284 285 286 288 289 290 292 293 296 303 315 322 324 324 324 324 322 321 321